SDM7 KLAX-ULLI

Flight info

Callsign SDM7
Flight time 10h 23m
Altitude 41000
Route OSHNN1 BEALE Q842 WINEN DCT JULIK DCT NAGNE DCT GANNE DCT ISMAY DCT PETBO DCT YBR DCT KAIIN DCT 57N090W DCT DUGNO DCT MIBNO/M086F410 DCT 60N050W 60N040W 60N030W 60N020W DCT RATSU DCT IPTON/N0494F410 DCT ABDIG DCT HUM DCT OLGUV DCT OVDAL DCT TOGMI DCT ROGTU DCT ENETI DCT TEVRU DCT OMZER T908 AKARU AKARU1V
Aircraft B748/H-SDE3FGHIM1M2RWXY/LB1

Departure

Time 2026-04-26 05:39
Airport Los Angeles International Airport (KLAX)

Arrival

Time 2026-04-26 16:03
Airport Pulkovo Airport (ULLI)
Time Latitude Longitude Altitude Speed Heading
2026-04-26 05:00 33.94518 -118.41143 101 ft 0 kts 83°
2026-04-26 05:29 33.94518 -118.41148 101 ft 3 kts 83°
2026-04-26 05:29 33.94514 -118.41180 100 ft 4 kts 76°
2026-04-26 05:30 33.94507 -118.41210 99 ft 4 kts 60°
2026-04-26 05:30 33.94497 -118.41231 100 ft 4 kts 25°
2026-04-26 05:30 33.94488 -118.41238 99 ft 0 kts 353°
2026-04-26 05:33 33.94505 -118.41243 99 ft 6 kts 347°
2026-04-26 05:33 33.94582 -118.41263 103 ft 16 kts 350°
2026-04-26 05:33 33.94685 -118.41285 104 ft 14 kts 350°
2026-04-26 05:34 33.94750 -118.41286 104 ft 3 kts 13°
2026-04-26 05:34 33.94763 -118.41279 104 ft 2 kts 27°
2026-04-26 05:34 33.94774 -118.41267 104 ft 2 kts 44°
2026-04-26 05:34 33.94790 -118.41237 104 ft 7 kts 65°
2026-04-26 05:35 33.94807 -118.41147 104 ft 15 kts 82°
2026-04-26 05:35 33.94823 -118.41016 106 ft 15 kts 82°
2026-04-26 05:35 33.94836 -118.40894 106 ft 15 kts 84°
2026-04-26 05:35 33.94853 -118.40723 107 ft 27 kts 83°
2026-04-26 05:36 33.94879 -118.40483 104 ft 28 kts 83°
2026-04-26 05:36 33.94904 -118.40260 104 ft 26 kts 82°
2026-04-26 05:36 33.94924 -118.40057 106 ft 24 kts 83°
2026-04-26 05:36 33.94944 -118.39952 105 ft 0 kts 64°
2026-04-26 05:37 33.94946 -118.39948 106 ft 2 kts 62°
2026-04-26 05:37 33.94959 -118.39932 107 ft 3 kts 38°
2026-04-26 05:37 33.94979 -118.39922 108 ft 3 kts 14°
2026-04-26 05:38 33.94998 -118.39923 110 ft 3 kts 357°
2026-04-26 05:38 33.95034 -118.39950 112 ft 4 kts 306°
2026-04-26 05:38 33.95035 -118.39965 112 ft 2 kts 272°
2026-04-26 05:38 33.95034 -118.39979 111 ft 2 kts 265°
2026-04-26 05:39 33.95009 -118.40257 115 ft 74 kts 263°
2026-04-26 05:39 33.94914 -118.41194 113 ft 148 kts 263°
2026-04-26 05:39 33.94766 -118.42619 389 ft 182 kts 263°
2026-04-26 05:39 33.94608 -118.44202 762 ft 200 kts 265°
2026-04-26 05:40 33.94444 -118.45931 1166 ft 211 kts 262°
2026-04-26 05:40 33.94366 -118.47693 1733 ft 213 kts 270°
2026-04-26 05:40 33.94300 -118.49555 1893 ft 231 kts 266°
2026-04-26 05:40 33.94159 -118.51463 2428 ft 228 kts 263°
2026-04-26 05:41 33.94005 -118.53374 2843 ft 231 kts 266°
2026-04-26 05:41 33.93879 -118.55306 3385 ft 233 kts 265°
2026-04-26 05:41 33.93726 -118.57338 3629 ft 254 kts 265°
2026-04-26 05:41 33.93554 -118.59462 4476 ft 256 kts 264°
2026-04-26 05:42 33.93066 -118.61549 4977 ft 264 kts 241°
2026-04-26 05:42 33.91845 -118.63187 4983 ft 264 kts 216°
2026-04-26 05:42 33.90145 -118.64033 5122 ft 273 kts 189°
2026-04-26 05:42 33.88291 -118.64029 6539 ft 264 kts 180°
2026-04-26 05:43 33.86427 -118.63914 7589 ft 271 kts 180°
2026-04-26 05:43 33.84539 -118.63705 8747 ft 276 kts 169°
2026-04-26 05:43 33.82777 -118.62728 9863 ft 286 kts 151°
2026-04-26 05:43 33.81077 -118.61363 10546 ft 306 kts 149°
2026-04-26 05:44 33.79254 -118.59831 10959 ft 333 kts 149°
2026-04-26 05:44 33.77263 -118.58194 11381 ft 360 kts 150°
2026-04-26 05:44 33.75137 -118.56481 12235 ft 371 kts 150°
2026-04-26 05:44 33.72976 -118.54732 13253 ft 379 kts 150°
2026-04-26 05:45 33.70866 -118.52771 14196 ft 392 kts 138°
2026-04-26 05:45 33.69224 -118.50092 15089 ft 407 kts 120°
2026-04-26 05:45 33.68128 -118.46907 15925 ft 418 kts 112°
2026-04-26 05:45 33.67181 -118.43579 16807 ft 425 kts 111°
2026-04-26 05:46 33.66230 -118.40187 17678 ft 431 kts 112°
2026-04-26 05:46 33.65211 -118.36777 18483 ft 438 kts 111°
2026-04-26 05:46 33.64537 -118.33179 19259 ft 448 kts 97°
2026-04-26 05:46 33.64443 -118.29410 19967 ft 456 kts 92°
2026-04-26 05:47 33.64446 -118.25587 20717 ft 461 kts 91°
2026-04-26 05:47 33.64733 -118.21731 21422 ft 468 kts 78°
2026-04-26 05:47 33.65712 -118.17994 22106 ft 473 kts 64°
2026-04-26 05:47 33.67247 -118.14734 22706 ft 476 kts 51°
2026-04-26 05:48 33.69490 -118.11607 23384 ft 479 kts 44°
2026-04-26 05:48 33.71796 -118.08693 23957 ft 483 kts 43°
2026-04-26 05:48 33.74143 -118.05768 24505 ft 488 kts 43°
2026-04-26 05:48 33.76494 -118.02806 25065 ft 492 kts 43°
2026-04-26 05:49 33.78856 -117.99795 25615 ft 497 kts 43°
2026-04-26 05:49 33.83658 -117.93715 26728 ft 506 kts 43°
2026-04-26 05:49 33.86064 -117.90671 27258 ft 510 kts 43°
2026-04-26 05:50 33.88514 -117.87555 27818 ft 515 kts 43°
2026-04-26 05:50 33.90985 -117.84410 28351 ft 519 kts 43°
2026-04-26 05:50 33.93512 -117.81198 28906 ft 523 kts 43°
2026-04-26 05:50 33.95993 -117.78043 29425 ft 528 kts 43°
2026-04-26 05:51 33.98555 -117.74779 29984 ft 532 kts 43°
2026-04-26 05:51 34.01108 -117.71519 30424 ft 537 kts 43°
2026-04-26 05:51 34.03687 -117.68227 30837 ft 542 kts 43°
2026-04-26 05:51 34.06245 -117.64960 31211 ft 546 kts 43°
2026-04-26 05:52 34.08865 -117.61610 31631 ft 551 kts 44°
2026-04-26 05:52 34.11508 -117.58226 32017 ft 556 kts 44°
2026-04-26 05:52 34.14166 -117.54818 32421 ft 560 kts 44°
2026-04-26 05:52 34.16849 -117.51377 32804 ft 565 kts 44°
2026-04-26 05:53 34.19553 -117.47906 33193 ft 569 kts 44°
2026-04-26 05:53 34.22277 -117.44404 33552 ft 574 kts 44°
2026-04-26 05:53 34.25016 -117.40880 33941 ft 578 kts 44°
2026-04-26 05:53 34.27778 -117.37323 34267 ft 582 kts 44°
2026-04-26 05:54 34.30552 -117.33746 34640 ft 584 kts 44°
2026-04-26 05:54 34.33338 -117.30149 34969 ft 587 kts 44°
2026-04-26 05:54 34.36137 -117.26534 35310 ft 589 kts 44°
2026-04-26 05:54 34.38930 -117.22920 35715 ft 588 kts 45°
2026-04-26 05:55 34.41725 -117.19302 36126 ft 588 kts 45°
2026-04-26 05:55 34.44516 -117.15684 36508 ft 588 kts 45°
2026-04-26 05:55 34.47307 -117.12064 36881 ft 588 kts 45°
2026-04-26 05:55 34.50096 -117.08441 37252 ft 588 kts 45°
2026-04-26 05:56 34.52886 -117.04814 37609 ft 588 kts 45°
2026-04-26 05:56 34.55672 -117.01187 37936 ft 588 kts 45°
2026-04-26 05:56 34.58464 -116.97551 38257 ft 589 kts 45°
2026-04-26 05:56 34.61259 -116.93905 38568 ft 590 kts 45°
2026-04-26 05:57 34.64057 -116.90252 38834 ft 591 kts 45°
2026-04-26 05:57 34.66856 -116.86593 39075 ft 591 kts 45°
2026-04-26 05:57 34.69656 -116.82930 39317 ft 592 kts 45°
2026-04-26 05:57 34.72457 -116.79261 39554 ft 592 kts 45°
2026-04-26 05:58 34.75259 -116.75587 39794 ft 592 kts 45°
2026-04-26 05:58 34.78061 -116.71909 40019 ft 593 kts 45°
2026-04-26 05:58 34.80863 -116.68227 40217 ft 593 kts 45°
2026-04-26 05:58 34.83662 -116.64545 40401 ft 592 kts 45°
2026-04-26 05:59 34.86456 -116.60864 40597 ft 591 kts 45°
2026-04-26 05:59 34.89247 -116.57186 40795 ft 591 kts 45°
2026-04-26 05:59 34.92038 -116.53503 40824 ft 592 kts 45°
2026-04-26 06:00 34.97617 -116.46127 40825 ft 592 kts 45°
2026-04-26 06:00 35.03193 -116.38741 40816 ft 591 kts 45°
2026-04-26 06:01 35.08718 -116.31406 40821 ft 590 kts 45°
2026-04-26 06:01 35.14258 -116.24035 40813 ft 589 kts 45°
2026-04-26 06:02 35.19786 -116.16665 40817 ft 587 kts 45°
2026-04-26 06:02 35.25297 -116.09299 40816 ft 586 kts 46°
2026-04-26 06:03 35.30793 -116.01940 40826 ft 585 kts 46°
2026-04-26 06:03 35.36269 -115.94591 40828 ft 584 kts 46°
2026-04-26 06:04 35.41738 -115.87236 40837 ft 584 kts 46°
2026-04-26 06:04 35.47207 -115.79863 40845 ft 584 kts 46°
2026-04-26 06:05 35.52672 -115.72481 40844 ft 585 kts 46°
2026-04-26 06:05 35.58134 -115.65087 40841 ft 585 kts 46°
2026-04-26 06:06 35.63599 -115.57673 40833 ft 585 kts 46°
2026-04-26 06:06 35.69063 -115.50243 40826 ft 586 kts 46°
2026-04-26 06:07 35.74526 -115.42798 40814 ft 586 kts 46°
2026-04-26 06:07 35.79986 -115.35341 40817 ft 587 kts 46°
2026-04-26 06:08 35.85450 -115.27861 40815 ft 587 kts 46°
2026-04-26 06:08 35.90914 -115.20366 40816 ft 587 kts 47°
2026-04-26 06:09 35.96363 -115.12874 40814 ft 587 kts 47°
2026-04-26 06:09 36.01809 -115.05369 40813 ft 586 kts 47°
2026-04-26 06:10 36.07248 -114.97857 40779 ft 586 kts 47°
2026-04-26 06:10 36.12678 -114.90341 40721 ft 586 kts 47°
2026-04-26 06:11 36.18286 -114.83162 40746 ft 582 kts 34°
2026-04-26 06:11 36.25164 -114.78014 40700 ft 577 kts 25°
2026-04-26 06:12 36.32261 -114.73358 40690 ft 577 kts 25°
2026-04-26 06:12 36.39326 -114.68638 40680 ft 577 kts 25°
2026-04-26 06:13 36.46409 -114.63945 40670 ft 577 kts 25°
2026-04-26 06:13 36.53483 -114.59219 40660 ft 577 kts 25°
2026-04-26 06:14 36.60558 -114.54498 40653 ft 577 kts 25°
2026-04-26 06:14 36.67623 -114.49766 40653 ft 576 kts 25°
2026-04-26 06:15 36.74562 -114.44749 40644 ft 578 kts 29°
2026-04-26 06:15 36.80250 -114.40268 40656 ft 577 kts 30°
2026-04-26 06:16 36.87009 -114.34977 40660 ft 577 kts 29°
2026-04-26 06:16 36.93800 -114.29628 40658 ft 576 kts 30°
2026-04-26 06:17 37.00588 -114.24281 40674 ft 577 kts 30°
2026-04-26 06:17 37.07373 -114.18920 40671 ft 577 kts 30°
2026-04-26 06:18 37.14157 -114.13551 40678 ft 577 kts 30°
2026-04-26 06:18 37.20935 -114.08173 40690 ft 576 kts 30°
2026-04-26 06:19 37.27697 -114.02797 40700 ft 576 kts 30°
2026-04-26 06:19 37.34462 -113.97408 40709 ft 576 kts 30°
2026-04-26 06:20 37.41185 -113.91937 40710 ft 576 kts 32°
2026-04-26 06:20 37.47765 -113.86181 40724 ft 576 kts 32°
2026-04-26 06:21 37.54389 -113.80520 40724 ft 575 kts 32°
2026-04-26 06:21 37.60981 -113.74799 40730 ft 575 kts 32°
2026-04-26 06:22 37.67582 -113.69091 40732 ft 575 kts 32°
2026-04-26 06:22 37.74176 -113.63368 40725 ft 575 kts 32°
2026-04-26 06:23 37.80758 -113.57638 40723 ft 575 kts 32°
2026-04-26 06:23 37.87346 -113.51900 40730 ft 575 kts 32°
2026-04-26 06:24 37.93927 -113.46145 40716 ft 575 kts 32°
2026-04-26 06:24 38.00505 -113.40389 40710 ft 575 kts 32°
2026-04-26 06:25 38.07080 -113.34615 40714 ft 575 kts 32°
2026-04-26 06:25 38.13655 -113.28835 40711 ft 575 kts 33°
2026-04-26 06:26 38.20181 -113.23080 40736 ft 575 kts 33°
2026-04-26 06:26 38.26793 -113.17239 40761 ft 575 kts 33°
2026-04-26 06:27 38.33314 -113.11465 40786 ft 575 kts 33°
2026-04-26 06:27 38.39873 -113.05643 40795 ft 574 kts 33°
2026-04-26 06:28 38.46419 -112.99821 40798 ft 574 kts 33°
2026-04-26 06:28 38.52964 -112.93986 40787 ft 574 kts 33°
2026-04-26 06:29 38.59507 -112.88140 40764 ft 573 kts 33°
2026-04-26 06:29 38.66040 -112.82289 40739 ft 573 kts 33°
2026-04-26 06:30 38.72557 -112.76440 40714 ft 572 kts 33°
2026-04-26 06:30 38.79076 -112.70575 40735 ft 572 kts 33°
2026-04-26 06:31 38.85584 -112.64707 40761 ft 571 kts 33°
2026-04-26 06:31 38.92083 -112.58834 40787 ft 571 kts 33°
2026-04-26 06:32 38.98568 -112.52960 40809 ft 571 kts 33°
2026-04-26 06:32 39.05053 -112.47072 40811 ft 570 kts 33°
2026-04-26 06:33 39.11488 -112.41217 40795 ft 570 kts 33°
2026-04-26 06:33 39.17958 -112.35316 40771 ft 570 kts 33°
2026-04-26 06:34 39.24421 -112.29408 40747 ft 569 kts 33°
2026-04-26 06:34 39.30879 -112.23491 40746 ft 569 kts 33°
2026-04-26 06:35 39.37333 -112.17565 40739 ft 569 kts 33°
2026-04-26 06:35 39.43776 -112.11633 40731 ft 569 kts 33°
2026-04-26 06:36 39.50223 -112.05685 40719 ft 569 kts 33°
2026-04-26 06:36 39.56670 -111.99723 40720 ft 569 kts 33°
2026-04-26 06:37 39.63115 -111.93749 40723 ft 569 kts 33°
2026-04-26 06:37 39.69558 -111.87763 40727 ft 570 kts 33°
2026-04-26 06:38 39.76000 -111.81764 40725 ft 570 kts 33°
2026-04-26 06:38 39.82446 -111.75747 40731 ft 570 kts 33°
2026-04-26 06:39 39.88885 -111.69721 40737 ft 570 kts 33°
2026-04-26 06:39 39.95313 -111.63693 40751 ft 570 kts 33°
2026-04-26 06:40 40.01745 -111.57646 40755 ft 569 kts 33°
2026-04-26 06:40 40.08170 -111.51592 40756 ft 570 kts 33°
2026-04-26 06:41 40.14589 -111.45528 40758 ft 569 kts 33°
2026-04-26 06:41 40.20996 -111.39461 40753 ft 569 kts 33°
2026-04-26 06:42 40.27410 -111.33375 40764 ft 569 kts 33°
2026-04-26 06:42 40.33778 -111.27315 40767 ft 570 kts 33°
2026-04-26 06:43 40.40186 -111.21205 40762 ft 569 kts 33°
2026-04-26 06:43 40.46589 -111.15084 40771 ft 569 kts 33°
2026-04-26 06:44 40.52987 -111.08953 40775 ft 569 kts 33°
2026-04-26 06:44 40.59383 -111.02810 40779 ft 569 kts 33°
2026-04-26 06:45 40.65766 -110.96662 40784 ft 569 kts 33°
2026-04-26 06:45 40.72150 -110.90501 40778 ft 568 kts 33°
2026-04-26 06:46 40.78524 -110.84334 40775 ft 568 kts 33°
2026-04-26 06:46 40.84890 -110.78159 40774 ft 568 kts 33°
2026-04-26 06:47 40.91249 -110.71975 40766 ft 567 kts 34°
2026-04-26 06:47 40.97600 -110.65785 40760 ft 567 kts 34°
2026-04-26 06:48 41.03938 -110.59592 40761 ft 566 kts 34°
2026-04-26 06:48 41.10273 -110.53388 40782 ft 566 kts 34°
2026-04-26 06:49 41.16601 -110.47174 40811 ft 566 kts 34°
2026-04-26 06:49 41.22883 -110.40991 40837 ft 566 kts 34°
2026-04-26 06:50 41.29243 -110.34716 40860 ft 565 kts 34°
2026-04-26 06:50 41.35508 -110.28518 40855 ft 566 kts 34°
2026-04-26 06:51 41.41817 -110.22262 40836 ft 565 kts 34°
2026-04-26 06:51 41.51271 -110.12858 40807 ft 565 kts 34°
2026-04-26 06:52 41.57569 -110.06574 40790 ft 565 kts 34°
2026-04-26 06:52 41.63865 -110.00277 40773 ft 565 kts 34°
2026-04-26 06:53 41.70158 -109.93966 40783 ft 565 kts 34°
2026-04-26 06:53 41.76443 -109.87647 40783 ft 565 kts 34°
2026-04-26 06:54 41.82727 -109.81314 40784 ft 565 kts 34°
2026-04-26 06:54 41.89003 -109.74974 40798 ft 564 kts 34°
2026-04-26 06:55 41.95270 -109.68625 40790 ft 564 kts 34°
2026-04-26 06:55 42.01530 -109.62269 40800 ft 564 kts 34°
2026-04-26 06:56 42.07776 -109.55910 40803 ft 563 kts 34°
2026-04-26 06:56 42.14015 -109.49543 40806 ft 562 kts 34°
2026-04-26 06:57 42.20243 -109.43170 40811 ft 562 kts 34°
2026-04-26 06:57 42.26462 -109.36790 40816 ft 561 kts 34°
2026-04-26 06:58 42.32675 -109.30401 40817 ft 561 kts 34°
2026-04-26 06:58 42.38880 -109.24003 40828 ft 561 kts 34°
2026-04-26 06:59 42.45072 -109.17603 40837 ft 561 kts 34°
2026-04-26 06:59 42.51262 -109.11187 40840 ft 560 kts 34°
2026-04-26 07:00 42.57401 -109.04809 40855 ft 559 kts 34°
2026-04-26 07:00 42.63572 -108.98382 40878 ft 559 kts 34°
2026-04-26 07:01 42.69736 -108.91945 40890 ft 559 kts 34°
2026-04-26 07:01 42.75893 -108.85498 40887 ft 558 kts 34°
2026-04-26 07:02 42.82046 -108.79039 40885 ft 558 kts 35°
2026-04-26 07:02 42.88192 -108.72572 40880 ft 559 kts 35°
2026-04-26 07:03 42.94344 -108.66080 40900 ft 559 kts 35°
2026-04-26 07:03 43.00494 -108.59575 40890 ft 559 kts 35°
2026-04-26 07:04 43.06646 -108.53050 40876 ft 560 kts 35°
2026-04-26 07:04 43.12757 -108.46552 40880 ft 560 kts 35°
2026-04-26 07:05 43.18910 -108.39991 40888 ft 561 kts 35°
2026-04-26 07:05 43.24065 -108.34483 40906 ft 561 kts 35°
2026-04-26 07:06 43.30222 -108.27886 40919 ft 562 kts 35°
2026-04-26 07:06 43.36385 -108.21265 40935 ft 563 kts 35°
2026-04-26 07:07 43.42547 -108.14629 40933 ft 564 kts 35°
2026-04-26 07:07 43.48682 -108.08004 40934 ft 565 kts 35°
2026-04-26 07:08 43.54863 -108.01312 40941 ft 565 kts 35°
2026-04-26 07:08 43.61044 -107.94600 40929 ft 566 kts 35°
2026-04-26 07:09 43.67223 -107.87874 40917 ft 566 kts 35°
2026-04-26 07:09 43.73401 -107.81131 40922 ft 566 kts 36°
2026-04-26 07:11 43.88831 -107.64208 40916 ft 566 kts 36°
2026-04-26 07:11 43.94996 -107.57414 40922 ft 566 kts 36°
2026-04-26 07:12 44.01154 -107.50610 40924 ft 565 kts 36°
2026-04-26 07:12 44.07303 -107.43797 40920 ft 565 kts 36°
2026-04-26 07:13 44.13441 -107.36978 40925 ft 564 kts 36°
2026-04-26 07:13 44.19565 -107.30154 40922 ft 563 kts 36°
2026-04-26 07:14 44.25675 -107.23329 40926 ft 562 kts 36°
2026-04-26 07:14 44.31765 -107.16507 40931 ft 562 kts 36°
2026-04-26 07:15 44.37852 -107.09670 40941 ft 561 kts 36°
2026-04-26 07:15 44.43935 -107.02818 40944 ft 561 kts 36°
2026-04-26 07:16 44.50003 -106.95964 40952 ft 561 kts 36°
2026-04-26 07:16 44.56076 -106.89086 40959 ft 561 kts 36°
2026-04-26 07:17 44.62147 -106.82191 40968 ft 562 kts 36°
2026-04-26 07:17 44.68175 -106.75326 40982 ft 562 kts 36°
2026-04-26 07:18 44.74239 -106.68400 40987 ft 561 kts 36°
2026-04-26 07:18 44.80297 -106.61463 41001 ft 561 kts 36°
2026-04-26 07:19 44.86346 -106.54516 41015 ft 561 kts 36°
2026-04-26 07:19 44.92387 -106.47558 41026 ft 560 kts 37°
2026-04-26 07:20 44.98414 -106.40598 41025 ft 560 kts 37°
2026-04-26 07:20 45.04441 -106.33617 41030 ft 560 kts 37°
2026-04-26 07:21 45.10461 -106.26627 41031 ft 559 kts 37°
2026-04-26 07:21 45.16471 -106.19627 41039 ft 559 kts 37°
2026-04-26 07:22 45.22471 -106.12620 41037 ft 558 kts 37°
2026-04-26 07:22 45.28460 -106.05604 41038 ft 558 kts 37°
2026-04-26 07:23 45.34440 -105.98580 41020 ft 558 kts 37°
2026-04-26 07:23 45.40407 -105.91552 41036 ft 557 kts 37°
2026-04-26 07:24 45.46375 -105.84502 41033 ft 557 kts 37°
2026-04-26 07:24 45.52339 -105.77437 41043 ft 557 kts 37°
2026-04-26 07:25 45.58299 -105.70357 41041 ft 557 kts 38°
2026-04-26 07:25 45.64256 -105.63259 41055 ft 558 kts 38°
2026-04-26 07:26 45.70170 -105.56192 41055 ft 558 kts 38°
2026-04-26 07:26 45.76120 -105.49063 41063 ft 558 kts 38°
2026-04-26 07:27 45.82058 -105.41928 41063 ft 557 kts 38°
2026-04-26 07:27 45.87996 -105.34771 41075 ft 557 kts 38°
2026-04-26 07:28 45.93928 -105.27601 41084 ft 557 kts 38°
2026-04-26 07:28 45.99855 -105.20417 41083 ft 557 kts 38°
2026-04-26 07:29 46.05774 -105.13222 41086 ft 557 kts 38°
2026-04-26 07:29 46.11685 -105.06014 41092 ft 556 kts 38°
2026-04-26 07:30 46.17590 -104.98795 41094 ft 556 kts 38°
2026-04-26 07:30 46.23487 -104.91563 41101 ft 556 kts 38°
2026-04-26 07:31 46.29370 -104.84327 41098 ft 556 kts 38°
2026-04-26 07:31 46.35253 -104.77070 41108 ft 556 kts 39°
2026-04-26 07:32 46.41130 -104.69799 41100 ft 555 kts 39°
2026-04-26 07:32 46.47000 -104.62515 41094 ft 555 kts 39°
2026-04-26 07:33 46.52864 -104.55218 41098 ft 555 kts 39°
2026-04-26 07:33 46.58723 -104.47904 41102 ft 555 kts 39°
2026-04-26 07:34 46.64578 -104.40576 41118 ft 555 kts 39°
2026-04-26 07:34 46.70421 -104.33239 41135 ft 555 kts 39°
2026-04-26 07:35 46.76265 -104.25880 41133 ft 555 kts 39°
2026-04-26 07:35 46.82104 -104.18505 41145 ft 555 kts 39°
2026-04-26 07:36 46.87937 -104.11115 41134 ft 555 kts 39°
2026-04-26 07:36 46.93724 -104.03762 41135 ft 554 kts 39°
2026-04-26 07:37 46.99543 -103.96346 41139 ft 554 kts 39°
2026-04-26 07:37 47.05356 -103.88916 41146 ft 554 kts 39°
2026-04-26 07:38 47.11158 -103.81478 41153 ft 554 kts 39°
2026-04-26 07:38 47.16960 -103.74016 41153 ft 554 kts 39°
2026-04-26 07:39 47.22756 -103.66540 41157 ft 554 kts 40°
2026-04-26 07:39 47.28547 -103.59048 41156 ft 554 kts 40°
2026-04-26 07:40 47.34333 -103.51539 41159 ft 554 kts 40°
2026-04-26 07:40 47.40113 -103.44016 41155 ft 554 kts 40°
2026-04-26 07:41 47.45884 -103.36481 41161 ft 553 kts 40°
2026-04-26 07:41 47.51609 -103.28983 41165 ft 553 kts 40°
2026-04-26 07:42 47.57404 -103.21372 41155 ft 553 kts 40°
2026-04-26 07:42 47.63148 -103.13804 41156 ft 553 kts 40°
2026-04-26 07:43 47.68892 -103.06212 41156 ft 553 kts 40°
2026-04-26 07:43 47.74591 -102.98656 41156 ft 553 kts 40°
2026-04-26 07:44 47.80323 -102.91033 41151 ft 553 kts 40°
2026-04-26 07:44 47.86049 -102.83395 41152 ft 553 kts 40°
2026-04-26 07:45 47.91768 -102.75743 41145 ft 553 kts 40°
2026-04-26 07:45 47.97484 -102.68071 41143 ft 553 kts 40°
2026-04-26 07:46 48.03194 -102.60382 41139 ft 553 kts 40°
2026-04-26 07:46 48.08901 -102.52675 41137 ft 553 kts 40°
2026-04-26 07:47 48.14602 -102.44950 41133 ft 553 kts 40°
2026-04-26 07:47 48.20295 -102.37214 41124 ft 553 kts 41°
2026-04-26 07:48 48.25988 -102.29451 41126 ft 553 kts 41°
2026-04-26 07:48 48.31677 -102.21671 41124 ft 553 kts 41°
2026-04-26 07:49 48.37363 -102.13870 41117 ft 553 kts 41°
2026-04-26 07:49 48.43045 -102.06051 41117 ft 554 kts 41°
2026-04-26 07:50 48.51562 -101.94282 41112 ft 554 kts 41°
2026-04-26 07:50 48.57233 -101.86414 41116 ft 554 kts 41°
2026-04-26 07:51 48.62894 -101.78536 41115 ft 554 kts 41°
2026-04-26 07:51 48.68558 -101.70628 41123 ft 554 kts 41°
2026-04-26 07:52 48.74181 -101.62753 41134 ft 554 kts 41°
2026-04-26 07:52 48.79836 -101.54806 41137 ft 554 kts 41°
2026-04-26 07:53 48.85485 -101.46843 41132 ft 554 kts 41°
2026-04-26 07:53 48.91127 -101.38863 41125 ft 554 kts 41°
2026-04-26 07:54 48.95846 -101.32170 41120 ft 554 kts 42°
2026-04-26 07:54 49.01480 -101.24154 41128 ft 554 kts 42°
2026-04-26 07:55 49.07071 -101.16174 41123 ft 554 kts 42°
2026-04-26 07:55 49.12691 -101.08126 41123 ft 554 kts 42°
2026-04-26 07:56 49.18305 -101.00062 41122 ft 554 kts 42°
2026-04-26 07:56 49.23906 -100.91989 41123 ft 554 kts 42°
2026-04-26 07:57 49.29509 -100.83887 41124 ft 554 kts 42°
2026-04-26 07:57 49.35107 -100.75766 41120 ft 554 kts 42°
2026-04-26 07:58 49.40698 -100.67628 41122 ft 554 kts 42°
2026-04-26 07:58 49.46282 -100.59472 41120 ft 554 kts 43°
2026-04-26 07:59 49.51861 -100.51297 41117 ft 554 kts 43°
2026-04-26 07:59 49.57436 -100.43102 41120 ft 554 kts 43°
2026-04-26 08:00 49.63005 -100.34887 41115 ft 554 kts 43°
2026-04-26 08:00 49.68568 -100.26654 41103 ft 554 kts 43°
2026-04-26 08:01 49.74120 -100.18412 41080 ft 554 kts 43°
2026-04-26 08:01 49.79672 -100.10139 41070 ft 554 kts 43°
2026-04-26 08:02 49.85221 -100.01844 41053 ft 554 kts 43°
2026-04-26 08:02 49.90755 -99.93628 41057 ft 554 kts 37°
2026-04-26 08:03 49.96765 -99.86164 41055 ft 553 kts 37°
2026-04-26 08:03 50.02783 -99.78712 41068 ft 553 kts 38°
2026-04-26 08:04 50.08774 -99.71222 41083 ft 553 kts 37°
2026-04-26 08:04 50.14781 -99.63735 41097 ft 553 kts 38°
2026-04-26 08:05 50.20769 -99.56205 41101 ft 553 kts 38°
2026-04-26 08:05 50.26757 -99.48682 41096 ft 552 kts 38°
2026-04-26 08:06 50.32724 -99.41139 41090 ft 551 kts 38°
2026-04-26 08:06 50.38687 -99.33589 41085 ft 551 kts 38°
2026-04-26 08:07 50.44637 -99.26022 41088 ft 550 kts 38°
2026-04-26 08:07 50.50578 -99.18447 41090 ft 550 kts 38°
2026-04-26 08:08 50.56508 -99.10857 41087 ft 550 kts 38°
2026-04-26 08:08 50.62432 -99.03251 41086 ft 549 kts 38°
2026-04-26 08:09 50.68351 -98.95626 41083 ft 549 kts 38°
2026-04-26 08:09 50.74258 -98.87990 41082 ft 550 kts 39°
2026-04-26 08:10 50.80170 -98.80322 41076 ft 550 kts 39°
2026-04-26 08:10 50.86074 -98.72639 41080 ft 549 kts 39°
2026-04-26 08:11 50.91971 -98.64937 41079 ft 549 kts 39°
2026-04-26 08:11 50.97823 -98.57270 41070 ft 549 kts 39°
2026-04-26 08:12 51.03709 -98.49532 41081 ft 549 kts 39°
2026-04-26 08:12 51.09589 -98.41775 41072 ft 549 kts 39°
2026-04-26 08:13 51.15454 -98.34012 41078 ft 549 kts 39°
2026-04-26 08:13 51.21319 -98.26221 41071 ft 549 kts 40°
2026-04-26 08:14 51.27180 -98.18409 41064 ft 549 kts 40°
2026-04-26 08:14 51.33039 -98.10574 41070 ft 549 kts 40°
2026-04-26 08:15 51.38895 -98.02715 41075 ft 549 kts 40°
2026-04-26 08:15 51.44750 -97.94830 41069 ft 550 kts 40°
2026-04-26 08:16 51.50606 -97.86917 41077 ft 550 kts 40°
2026-04-26 08:16 51.56461 -97.78976 41076 ft 551 kts 40°
2026-04-26 08:17 51.62314 -97.71012 41069 ft 552 kts 41°
2026-04-26 08:17 51.68175 -97.63009 41072 ft 553 kts 41°
2026-04-26 08:18 51.73998 -97.55028 41074 ft 553 kts 41°
2026-04-26 08:18 51.79862 -97.46964 41073 ft 554 kts 41°
2026-04-26 08:19 51.85725 -97.38871 41077 ft 554 kts 41°
2026-04-26 08:19 51.91588 -97.30751 41076 ft 555 kts 41°
2026-04-26 08:20 51.97446 -97.22609 41071 ft 555 kts 41°
2026-04-26 08:20 52.03303 -97.14439 41073 ft 555 kts 41°
2026-04-26 08:21 52.09157 -97.06243 41073 ft 555 kts 41°
2026-04-26 08:21 52.15007 -96.98024 41069 ft 556 kts 41°
2026-04-26 08:22 52.20846 -96.89790 41067 ft 556 kts 41°
2026-04-26 08:22 52.26685 -96.81527 41068 ft 556 kts 41°
2026-04-26 08:23 52.32517 -96.73243 41065 ft 555 kts 41°
2026-04-26 08:23 52.38592 -96.65435 41074 ft 556 kts 37°
2026-04-26 08:24 52.44757 -96.57795 41074 ft 555 kts 38°
2026-04-26 08:24 52.50903 -96.50112 41069 ft 555 kts 38°
2026-04-26 08:25 52.57046 -96.42434 41069 ft 554 kts 38°
2026-04-26 08:25 52.63132 -96.34779 41071 ft 554 kts 38°
2026-04-26 08:26 52.69287 -96.27025 41070 ft 554 kts 38°
2026-04-26 08:26 52.75354 -96.19343 41075 ft 553 kts 38°
2026-04-26 08:27 52.81458 -96.11592 41067 ft 553 kts 38°
2026-04-26 08:27 52.87554 -96.03820 41067 ft 553 kts 38°
2026-04-26 08:28 52.93647 -95.96026 41072 ft 553 kts 38°
2026-04-26 08:28 52.99736 -95.88208 41067 ft 553 kts 38°
2026-04-26 08:29 53.05820 -95.80367 41065 ft 554 kts 39°
2026-04-26 08:29 53.11893 -95.72511 41061 ft 553 kts 39°
2026-04-26 08:30 53.17966 -95.64628 41063 ft 553 kts 39°
2026-04-26 08:30 53.24029 -95.56727 41058 ft 553 kts 39°
2026-04-26 08:31 53.30080 -95.48814 41057 ft 552 kts 39°
2026-04-26 08:31 53.36080 -95.40937 41057 ft 552 kts 39°
2026-04-26 08:32 53.42110 -95.32992 41054 ft 551 kts 39°
2026-04-26 08:32 53.48122 -95.25041 41058 ft 550 kts 39°
2026-04-26 08:33 53.54125 -95.17073 41055 ft 550 kts 39°
2026-04-26 08:33 53.60114 -95.09094 41050 ft 549 kts 39°
2026-04-26 08:34 53.66088 -95.01105 41034 ft 548 kts 39°
2026-04-26 08:34 53.72042 -94.93113 41024 ft 547 kts 39°
2026-04-26 08:35 53.77990 -94.85100 41008 ft 546 kts 39°
2026-04-26 08:35 53.83927 -94.77071 41002 ft 546 kts 40°
2026-04-26 08:36 53.89855 -94.69025 41002 ft 546 kts 40°
2026-04-26 08:36 53.95777 -94.60956 41004 ft 546 kts 40°
2026-04-26 08:37 54.01691 -94.52868 41015 ft 545 kts 40°
2026-04-26 08:37 54.07597 -94.44760 41027 ft 545 kts 40°
2026-04-26 08:38 54.13494 -94.36634 41038 ft 545 kts 40°
2026-04-26 08:38 54.19376 -94.28499 41038 ft 545 kts 40°
2026-04-26 08:39 54.25255 -94.20337 41041 ft 544 kts 40°
2026-04-26 08:39 54.31124 -94.12157 41038 ft 544 kts 40°
2026-04-26 08:40 54.36981 -94.03963 41036 ft 543 kts 40°
2026-04-26 08:40 54.42826 -93.95755 41038 ft 542 kts 40°
2026-04-26 08:41 54.48621 -93.87586 41037 ft 542 kts 40°
2026-04-26 08:41 54.54482 -93.79293 41036 ft 542 kts 41°
2026-04-26 08:42 54.60298 -93.71032 41037 ft 542 kts 41°
2026-04-26 08:42 54.66100 -93.62759 41037 ft 541 kts 41°
2026-04-26 08:43 54.71902 -93.54455 41038 ft 541 kts 41°
2026-04-26 08:43 54.76722 -93.47532 41039 ft 541 kts 41°
2026-04-26 08:44 54.82513 -93.39183 41041 ft 541 kts 41°
2026-04-26 08:44 54.88297 -93.30813 41048 ft 542 kts 41°
2026-04-26 08:45 54.94081 -93.22412 41053 ft 542 kts 41°
2026-04-26 08:45 54.99860 -93.13985 41051 ft 542 kts 41°
2026-04-26 08:46 55.05634 -93.05531 41054 ft 542 kts 41°
2026-04-26 08:46 55.11400 -92.97056 41055 ft 542 kts 42°
2026-04-26 08:47 55.17164 -92.88552 41060 ft 542 kts 42°
2026-04-26 08:47 55.22884 -92.80080 41064 ft 542 kts 42°
2026-04-26 08:48 55.28636 -92.71526 41062 ft 542 kts 42°
2026-04-26 08:48 55.34376 -92.62957 41067 ft 542 kts 42°
2026-04-26 08:49 55.40118 -92.54351 41071 ft 542 kts 42°
2026-04-26 08:49 55.45851 -92.45723 41071 ft 542 kts 42°
2026-04-26 08:50 55.51580 -92.37069 41077 ft 542 kts 43°
2026-04-26 08:50 55.57303 -92.28389 41079 ft 542 kts 43°
2026-04-26 08:51 55.65874 -92.15323 41085 ft 542 kts 43°
2026-04-26 08:52 55.71575 -92.06588 41088 ft 542 kts 43°
2026-04-26 08:52 55.77277 -91.97819 41090 ft 542 kts 43°
2026-04-26 08:53 55.82973 -91.89023 41092 ft 542 kts 43°
2026-04-26 08:53 55.88663 -91.80199 41094 ft 542 kts 43°
2026-04-26 08:54 55.94348 -91.71348 41097 ft 543 kts 43°
2026-04-26 08:54 56.00027 -91.62471 41100 ft 542 kts 43°
2026-04-26 08:55 56.05699 -91.53569 41107 ft 542 kts 43°
2026-04-26 08:55 56.11324 -91.44704 41108 ft 542 kts 43°
2026-04-26 08:56 56.17008 -91.35709 41117 ft 542 kts 43°
2026-04-26 08:56 56.22614 -91.26802 41112 ft 541 kts 43°
2026-04-26 08:57 56.28252 -91.17808 41116 ft 541 kts 43°
2026-04-26 08:57 56.33877 -91.08797 41118 ft 541 kts 43°
2026-04-26 08:58 56.39486 -90.99774 41120 ft 541 kts 43°
2026-04-26 08:58 56.45093 -90.90718 41116 ft 540 kts 44°
2026-04-26 08:59 56.50690 -90.81640 41123 ft 540 kts 44°
2026-04-26 08:59 56.56277 -90.72542 41123 ft 540 kts 44°
2026-04-26 09:00 56.61854 -90.63422 41131 ft 539 kts 44°
2026-04-26 09:00 56.67422 -90.54279 41128 ft 539 kts 44°
2026-04-26 09:01 56.72979 -90.45114 41130 ft 539 kts 44°
2026-04-26 09:01 56.78520 -90.35940 41132 ft 538 kts 44°
2026-04-26 09:02 56.84056 -90.26734 41132 ft 538 kts 44°
2026-04-26 09:02 56.89585 -90.17503 41135 ft 538 kts 44°
2026-04-26 09:03 56.95104 -90.08247 41140 ft 538 kts 44°
2026-04-26 09:03 57.00527 -89.98822 41156 ft 535 kts 53°
2026-04-26 09:04 57.05252 -89.88277 41150 ft 535 kts 53°
2026-04-26 09:04 57.09961 -89.77698 41155 ft 534 kts 52°
2026-04-26 09:05 57.14664 -89.67105 41154 ft 534 kts 53°
2026-04-26 09:05 57.19345 -89.56493 41154 ft 534 kts 53°
2026-04-26 09:06 57.24026 -89.45854 41154 ft 534 kts 53°
2026-04-26 09:06 57.28691 -89.35188 41149 ft 533 kts 53°
2026-04-26 09:07 57.33348 -89.24504 41151 ft 533 kts 53°
2026-04-26 09:07 57.37993 -89.13792 41149 ft 533 kts 53°
2026-04-26 09:08 57.42628 -89.03059 41152 ft 533 kts 53°
2026-04-26 09:08 57.47252 -88.92301 41161 ft 533 kts 53°
2026-04-26 09:09 57.51861 -88.81531 41157 ft 533 kts 53°
2026-04-26 09:09 57.56465 -88.70722 41159 ft 533 kts 53°
2026-04-26 09:10 57.61032 -88.59953 41168 ft 533 kts 54°
2026-04-26 09:10 57.65647 -88.49020 41160 ft 533 kts 54°
2026-04-26 09:11 57.70187 -88.38216 41184 ft 532 kts 54°
2026-04-26 09:11 57.74751 -88.27304 41181 ft 532 kts 54°
2026-04-26 09:12 57.79305 -88.16369 41180 ft 532 kts 54°
2026-04-26 09:12 57.83847 -88.05408 41175 ft 532 kts 54°
2026-04-26 09:13 57.88380 -87.94423 41179 ft 532 kts 54°
2026-04-26 09:13 57.92903 -87.83408 41179 ft 532 kts 54°
2026-04-26 09:14 57.97416 -87.72369 41182 ft 532 kts 55°
2026-04-26 09:14 58.01913 -87.61317 41187 ft 532 kts 55°
2026-04-26 09:15 58.06405 -87.50227 41189 ft 531 kts 55°
2026-04-26 09:15 58.10884 -87.39115 41195 ft 531 kts 55°
2026-04-26 09:16 58.15351 -87.27981 41200 ft 531 kts 55°
2026-04-26 09:16 58.19805 -87.16830 41197 ft 530 kts 55°
2026-04-26 09:17 58.24244 -87.05661 41200 ft 530 kts 56°
2026-04-26 09:17 58.28670 -86.94474 41208 ft 529 kts 56°
2026-04-26 09:18 58.33082 -86.83268 41209 ft 529 kts 56°
2026-04-26 09:18 58.37476 -86.72058 41215 ft 528 kts 56°
2026-04-26 09:19 58.41862 -86.60814 41217 ft 528 kts 56°
2026-04-26 09:19 58.46236 -86.49547 41229 ft 528 kts 56°
2026-04-26 09:20 58.50600 -86.38254 41228 ft 528 kts 56°
2026-04-26 09:20 58.54951 -86.26938 41230 ft 528 kts 56°
2026-04-26 09:21 58.59290 -86.15601 41237 ft 527 kts 57°
2026-04-26 09:21 58.63617 -86.04241 41242 ft 527 kts 57°
2026-04-26 09:22 58.67926 -85.92875 41249 ft 526 kts 57°
2026-04-26 09:22 58.72225 -85.81477 41252 ft 526 kts 57°
2026-04-26 09:23 58.76512 -85.70060 41256 ft 526 kts 57°
2026-04-26 09:23 58.80759 -85.58692 41262 ft 525 kts 57°
2026-04-26 09:24 58.85014 -85.47249 41263 ft 525 kts 57°
2026-04-26 09:24 58.89260 -85.35774 41267 ft 525 kts 57°
2026-04-26 09:25 58.93493 -85.24281 41274 ft 524 kts 57°
2026-04-26 09:25 58.97711 -85.12771 41276 ft 524 kts 58°
2026-04-26 09:26 59.01916 -85.01239 41282 ft 523 kts 58°
2026-04-26 09:26 59.06110 -84.89684 41287 ft 523 kts 58°
2026-04-26 09:27 59.10292 -84.78104 41292 ft 523 kts 58°
2026-04-26 09:27 59.14458 -84.66511 41307 ft 523 kts 58°
2026-04-26 09:28 59.18617 -84.54882 41307 ft 523 kts 58°
2026-04-26 09:28 59.22764 -84.43228 41308 ft 523 kts 58°
2026-04-26 09:29 59.26871 -84.31629 41308 ft 522 kts 58°
2026-04-26 09:29 59.30996 -84.19922 41320 ft 522 kts 58°
2026-04-26 09:30 59.35110 -84.08186 41321 ft 523 kts 58°
2026-04-26 09:30 59.39214 -83.96422 41321 ft 522 kts 58°
2026-04-26 09:31 59.43303 -83.84643 41320 ft 523 kts 59°
2026-04-26 09:31 59.47385 -83.72824 41320 ft 522 kts 59°
2026-04-26 09:32 59.50770 -83.62977 41329 ft 522 kts 59°
2026-04-26 09:32 59.54831 -83.51110 41335 ft 522 kts 59°
2026-04-26 09:33 59.58881 -83.39214 41333 ft 522 kts 59°
2026-04-26 09:33 59.62916 -83.27302 41338 ft 522 kts 59°
2026-04-26 09:34 59.66945 -83.15349 41338 ft 522 kts 59°
2026-04-26 09:34 59.70962 -83.03368 41344 ft 522 kts 59°
2026-04-26 09:35 59.74968 -82.91359 41349 ft 522 kts 59°
2026-04-26 09:35 59.78963 -82.79323 41351 ft 522 kts 59°
2026-04-26 09:36 59.82946 -82.67259 41352 ft 522 kts 59°
2026-04-26 09:36 59.86919 -82.55163 41374 ft 522 kts 59°
2026-04-26 09:37 59.90856 -82.43115 41376 ft 522 kts 59°
2026-04-26 09:37 59.94832 -82.30885 41378 ft 523 kts 59°
2026-04-26 09:38 59.98776 -82.18689 41372 ft 523 kts 60°
2026-04-26 09:38 60.02712 -82.06455 41369 ft 523 kts 60°
2026-04-26 09:39 60.06637 -81.94188 41376 ft 523 kts 60°
2026-04-26 09:39 60.10526 -81.81970 41378 ft 523 kts 60°
2026-04-26 09:40 60.14431 -81.69639 41382 ft 524 kts 60°
2026-04-26 09:40 60.18352 -81.57189 41374 ft 524 kts 60°
2026-04-26 09:41 60.22233 -81.44800 41380 ft 524 kts 60°
2026-04-26 09:41 60.26083 -81.32446 41383 ft 524 kts 60°
2026-04-26 09:42 60.29949 -81.19973 41386 ft 525 kts 60°
2026-04-26 09:42 60.33805 -81.07467 41388 ft 525 kts 60°
2026-04-26 09:43 60.37649 -80.94929 41390 ft 525 kts 60°
2026-04-26 09:43 60.41482 -80.82361 41394 ft 525 kts 60°
2026-04-26 09:44 60.45304 -80.69758 41396 ft 525 kts 60°
2026-04-26 09:44 60.49112 -80.57134 41407 ft 525 kts 60°
2026-04-26 09:45 60.52914 -80.44459 41404 ft 526 kts 60°
2026-04-26 09:45 60.56707 -80.31747 41406 ft 526 kts 60°
2026-04-26 09:46 60.60489 -80.18999 41409 ft 526 kts 60°
2026-04-26 09:46 60.64251 -80.06208 41407 ft 526 kts 64°
2026-04-26 09:46 60.65721 -79.99426 41449 ft 522 kts 75°
2026-04-26 09:47 60.66552 -79.92245 41448 ft 520 kts 85°
2026-04-26 09:47 60.67439 -79.77611 41434 ft 520 kts 85°
2026-04-26 09:48 60.68294 -79.62956 41432 ft 520 kts 85°
2026-04-26 09:48 60.69146 -79.48298 41436 ft 521 kts 85°
2026-04-26 09:49 60.69973 -79.33599 41436 ft 522 kts 85°
2026-04-26 09:49 60.70793 -79.18883 41433 ft 522 kts 85°
2026-04-26 09:50 60.71591 -79.04149 41440 ft 522 kts 85°
2026-04-26 09:50 60.72373 -78.89499 41439 ft 522 kts 85°
2026-04-26 09:51 60.73141 -78.74730 41440 ft 523 kts 85°
2026-04-26 09:51 60.73900 -78.59842 41445 ft 523 kts 86°
2026-04-26 09:52 60.74633 -78.45146 41440 ft 524 kts 86°
2026-04-26 09:52 60.75711 -78.22896 41444 ft 525 kts 86°
2026-04-26 09:53 60.76410 -78.08040 41442 ft 525 kts 86°
2026-04-26 09:53 60.77092 -77.93172 41448 ft 525 kts 86°
2026-04-26 09:54 60.77759 -77.78285 41459 ft 526 kts 86°
2026-04-26 09:54 60.78410 -77.63380 41463 ft 526 kts 86°
2026-04-26 09:55 60.79043 -77.48481 41468 ft 526 kts 86°
2026-04-26 09:55 60.79662 -77.33553 41472 ft 526 kts 86°
2026-04-26 09:56 60.80264 -77.18611 41473 ft 527 kts 86°
2026-04-26 09:56 60.80849 -77.03659 41479 ft 527 kts 86°
2026-04-26 09:57 60.81419 -76.88690 41478 ft 527 kts 87°
2026-04-26 09:57 60.81972 -76.73710 41491 ft 527 kts 87°
2026-04-26 09:58 60.82508 -76.58716 41491 ft 528 kts 87°
2026-04-26 09:58 60.83028 -76.43709 41486 ft 528 kts 87°
2026-04-26 09:59 60.83531 -76.28700 41491 ft 528 kts 87°
2026-04-26 09:59 60.84019 -76.13655 41492 ft 529 kts 87°
2026-04-26 10:00 60.84487 -75.98697 41485 ft 529 kts 87°
2026-04-26 10:00 60.84941 -75.83630 41494 ft 529 kts 87°
2026-04-26 10:01 60.85379 -75.68550 41497 ft 530 kts 87°
2026-04-26 10:01 60.85800 -75.53461 41498 ft 530 kts 88°
2026-04-26 10:02 60.86203 -75.38365 41504 ft 530 kts 88°
2026-04-26 10:02 60.86592 -75.23266 41507 ft 531 kts 88°
2026-04-26 10:03 60.86962 -75.08141 41514 ft 531 kts 88°
2026-04-26 10:03 60.87317 -74.93009 41513 ft 531 kts 88°
2026-04-26 10:04 60.87653 -74.77869 41516 ft 531 kts 88°
2026-04-26 10:04 60.87974 -74.62724 41528 ft 531 kts 88°
2026-04-26 10:05 60.88277 -74.47571 41527 ft 531 kts 88°
2026-04-26 10:05 60.88563 -74.32414 41526 ft 531 kts 88°
2026-04-26 10:06 60.88832 -74.17253 41523 ft 531 kts 88°
2026-04-26 10:06 60.89084 -74.02103 41536 ft 531 kts 88°
2026-04-26 10:07 60.89319 -73.86932 41529 ft 531 kts 88°
2026-04-26 10:07 60.89537 -73.71753 41532 ft 532 kts 88°
2026-04-26 10:08 60.89738 -73.56572 41533 ft 532 kts 88°
2026-04-26 10:08 60.89922 -73.41387 41539 ft 532 kts 88°
2026-04-26 10:09 60.90089 -73.26199 41537 ft 532 kts 88°
2026-04-26 10:09 60.90239 -73.11008 41545 ft 532 kts 88°
2026-04-26 10:10 60.90370 -72.95932 41536 ft 532 kts 88°
2026-04-26 10:10 60.90486 -72.80733 41540 ft 532 kts 88°
2026-04-26 10:11 60.90585 -72.65531 41542 ft 532 kts 88°
2026-04-26 10:11 60.90666 -72.50334 41546 ft 532 kts 88°
2026-04-26 10:12 60.90731 -72.35125 41541 ft 532 kts 88°
2026-04-26 10:12 60.90778 -72.19911 41544 ft 533 kts 88°
2026-04-26 10:13 60.90808 -72.04694 41539 ft 532 kts 89°
2026-04-26 10:13 60.90821 -71.89480 41529 ft 532 kts 89°
2026-04-26 10:14 60.90816 -71.74272 41525 ft 532 kts 89°
2026-04-26 10:14 60.90795 -71.59066 41521 ft 532 kts 89°
2026-04-26 10:15 60.90756 -71.43879 41519 ft 532 kts 89°
2026-04-26 10:15 60.90701 -71.28661 41516 ft 532 kts 89°
2026-04-26 10:16 60.90628 -71.13480 41520 ft 532 kts 89°
2026-04-26 10:16 60.90538 -70.98285 41516 ft 532 kts 89°
2026-04-26 10:17 60.90431 -70.83095 41512 ft 532 kts 89°
2026-04-26 10:17 60.90307 -70.67910 41516 ft 532 kts 89°
2026-04-26 10:18 60.90166 -70.52737 41506 ft 531 kts 89°
2026-04-26 10:18 60.90007 -70.37559 41496 ft 531 kts 89°
2026-04-26 10:19 60.89834 -70.22489 41498 ft 531 kts 89°
2026-04-26 10:19 60.89641 -70.07324 41502 ft 531 kts 89°
2026-04-26 10:20 60.89467 -69.94635 41488 ft 531 kts 89°
2026-04-26 10:20 60.89244 -69.79482 41487 ft 531 kts 89°
2026-04-26 10:21 60.89004 -69.64332 41483 ft 531 kts 90°
2026-04-26 10:21 60.88746 -69.49183 41489 ft 531 kts 90°
2026-04-26 10:22 60.88472 -69.34033 41486 ft 531 kts 90°
2026-04-26 10:22 60.88180 -69.18886 41484 ft 531 kts 90°
2026-04-26 10:23 60.87872 -69.03737 41482 ft 531 kts 90°
2026-04-26 10:23 60.87546 -68.88607 41486 ft 531 kts 90°
2026-04-26 10:24 60.87203 -68.73466 41477 ft 531 kts 90°
2026-04-26 10:24 60.86844 -68.58332 41476 ft 531 kts 90°
2026-04-26 10:25 60.86468 -68.43207 41473 ft 530 kts 90°
2026-04-26 10:25 60.86077 -68.28195 41477 ft 530 kts 90°
2026-04-26 10:26 60.85668 -68.13094 41478 ft 530 kts 90°
2026-04-26 10:26 60.85241 -67.98002 41480 ft 530 kts 90°
2026-04-26 10:27 60.84798 -67.82938 41471 ft 529 kts 91°
2026-04-26 10:27 60.84338 -67.67863 41472 ft 529 kts 91°
2026-04-26 10:28 60.83861 -67.52806 41474 ft 529 kts 91°
2026-04-26 10:28 60.83369 -67.37763 41475 ft 529 kts 91°
2026-04-26 10:29 60.82860 -67.22744 41472 ft 528 kts 91°
2026-04-26 10:29 60.82333 -67.07718 41470 ft 529 kts 91°
2026-04-26 10:30 60.81790 -66.92702 41464 ft 528 kts 91°
2026-04-26 10:30 60.81231 -66.77695 41465 ft 528 kts 91°
2026-04-26 10:31 60.80655 -66.62694 41461 ft 528 kts 91°
2026-04-26 10:31 60.80062 -66.47704 41468 ft 528 kts 91°
2026-04-26 10:32 60.79453 -66.32721 41463 ft 528 kts 91°
2026-04-26 10:32 60.78827 -66.17766 41463 ft 528 kts 92°
2026-04-26 10:33 60.78185 -66.02808 41468 ft 527 kts 92°
2026-04-26 10:33 60.77527 -65.87867 41464 ft 527 kts 92°
2026-04-26 10:34 60.76853 -65.72939 41466 ft 527 kts 92°
2026-04-26 10:34 60.76162 -65.58022 41466 ft 527 kts 92°
2026-04-26 10:35 60.75454 -65.43111 41463 ft 527 kts 92°
2026-04-26 10:35 60.74731 -65.28210 41464 ft 527 kts 92°
2026-04-26 10:36 60.73990 -65.13321 41461 ft 526 kts 92°
2026-04-26 10:36 60.73235 -64.98460 41464 ft 526 kts 92°
2026-04-26 10:37 60.72462 -64.83592 41465 ft 526 kts 93°
2026-04-26 10:37 60.71674 -64.68737 41461 ft 526 kts 93°
2026-04-26 10:38 60.70874 -64.53997 41465 ft 525 kts 93°
2026-04-26 10:38 60.70054 -64.39176 41460 ft 525 kts 93°
2026-04-26 10:39 60.69217 -64.24367 41462 ft 525 kts 93°
2026-04-26 10:39 60.68365 -64.09573 41457 ft 525 kts 93°
2026-04-26 10:40 60.67497 -63.94809 41456 ft 524 kts 94°
2026-04-26 10:40 60.66614 -63.80046 41454 ft 524 kts 94°
2026-04-26 10:41 60.65714 -63.65304 41446 ft 524 kts 94°
2026-04-26 10:41 60.64799 -63.50582 41453 ft 523 kts 94°
2026-04-26 10:42 60.63868 -63.35878 41450 ft 523 kts 94°
2026-04-26 10:42 60.62922 -63.21191 41439 ft 523 kts 94°
2026-04-26 10:43 60.61961 -63.06521 41442 ft 522 kts 94°
2026-04-26 10:43 60.60984 -62.91871 41436 ft 522 kts 94°
2026-04-26 10:44 60.59992 -62.77257 41440 ft 521 kts 94°
2026-04-26 10:44 60.58986 -62.62649 41434 ft 521 kts 95°
2026-04-26 10:45 60.58331 -62.48049 41429 ft 516 kts 86°
2026-04-26 10:45 60.58341 -62.33454 41417 ft 516 kts 86°
2026-04-26 10:46 60.58321 -62.18963 41413 ft 515 kts 86°
2026-04-26 10:46 60.58289 -62.04383 41416 ft 515 kts 86°
2026-04-26 10:47 60.58242 -61.89826 41406 ft 515 kts 87°
2026-04-26 10:47 60.58177 -61.75252 41516 ft 518 kts 87°
2026-04-26 10:48 60.58142 -61.67845 41390 ft 528 kts 87°
2026-04-26 10:48 60.58098 -61.60325 41398 ft 535 kts 88°
2026-04-26 10:48 60.57993 -61.45069 41394 ft 541 kts 88°
2026-04-26 10:49 60.57876 -61.29770 41393 ft 541 kts 88°
2026-04-26 10:49 60.57739 -61.14469 41387 ft 541 kts 88°
2026-04-26 10:50 60.57613 -61.01765 41375 ft 541 kts 88°
2026-04-26 10:50 60.57414 -60.83867 41369 ft 541 kts 88°
2026-04-26 10:51 60.57125 -60.60925 41367 ft 542 kts 88°
2026-04-26 10:52 60.56910 -60.45614 41356 ft 542 kts 88°
2026-04-26 10:52 60.56677 -60.30301 41358 ft 542 kts 88°
2026-04-26 10:53 60.56427 -60.14987 41350 ft 542 kts 89°
2026-04-26 10:53 60.56161 -59.99768 41346 ft 542 kts 89°
2026-04-26 10:54 60.55726 -59.76786 41349 ft 543 kts 89°
2026-04-26 10:54 60.55414 -59.61477 41334 ft 543 kts 89°
2026-04-26 10:55 60.55085 -59.46147 41332 ft 543 kts 89°
2026-04-26 10:55 60.54795 -59.33295 41325 ft 543 kts 89°
2026-04-26 10:56 60.54372 -59.15469 41321 ft 544 kts 89°
2026-04-26 10:56 60.53989 -59.00126 41313 ft 544 kts 89°
2026-04-26 10:57 60.53589 -58.84784 41310 ft 544 kts 89°
2026-04-26 10:57 60.53170 -58.69445 41307 ft 544 kts 90°
2026-04-26 10:58 60.52735 -58.54113 41299 ft 544 kts 90°
2026-04-26 10:58 60.52282 -58.38800 41293 ft 544 kts 90°
2026-04-26 10:59 60.51811 -58.23472 41289 ft 544 kts 90°
2026-04-26 10:59 60.51322 -58.08142 41281 ft 544 kts 90°
2026-04-26 11:00 60.50816 -57.92810 41274 ft 544 kts 90°
2026-04-26 11:00 60.50291 -57.77475 41270 ft 545 kts 90°
2026-04-26 11:01 60.49749 -57.62136 41259 ft 545 kts 90°
2026-04-26 11:01 60.49189 -57.46794 41255 ft 545 kts 90°
2026-04-26 11:02 60.48611 -57.31448 41251 ft 546 kts 91°
2026-04-26 11:02 60.48015 -57.16116 41250 ft 546 kts 91°
2026-04-26 11:03 60.47402 -57.00769 41234 ft 546 kts 91°
2026-04-26 11:03 60.46770 -56.85429 41231 ft 546 kts 91°
2026-04-26 11:04 60.46121 -56.70089 41222 ft 546 kts 91°
2026-04-26 11:04 60.45454 -56.54751 41218 ft 546 kts 91°
2026-04-26 11:05 60.44769 -56.39418 41210 ft 547 kts 91°
2026-04-26 11:05 60.44067 -56.24086 41203 ft 547 kts 91°
2026-04-26 11:06 60.43470 -56.11355 41198 ft 547 kts 92°
2026-04-26 11:06 60.42734 -55.96021 41190 ft 547 kts 92°
2026-04-26 11:07 60.41981 -55.80692 41183 ft 548 kts 92°
2026-04-26 11:07 60.41209 -55.65356 41173 ft 548 kts 92°
2026-04-26 11:08 60.40420 -55.50018 41164 ft 548 kts 92°
2026-04-26 11:08 60.39612 -55.34680 41159 ft 548 kts 92°
2026-04-26 11:09 60.38786 -55.19339 41132 ft 549 kts 92°
2026-04-26 11:09 60.38380 -55.11983 41039 ft 517 kts 94°
2026-04-26 11:09 60.37982 -55.04785 41139 ft 515 kts 94°
2026-04-26 11:10 60.37182 -54.90393 41119 ft 516 kts 94°
2026-04-26 11:10 60.36354 -54.76009 41117 ft 516 kts 94°
2026-04-26 11:11 60.35518 -54.61604 41114 ft 517 kts 94°
2026-04-26 11:11 60.34658 -54.47189 41108 ft 517 kts 94°
2026-04-26 11:12 60.33788 -54.32767 41105 ft 518 kts 94°
2026-04-26 11:12 60.32902 -54.18430 41102 ft 518 kts 95°
2026-04-26 11:13 60.31998 -54.03994 41090 ft 519 kts 95°
2026-04-26 11:13 60.31074 -53.89571 41086 ft 519 kts 95°
2026-04-26 11:14 60.30137 -53.75127 41078 ft 520 kts 95°
2026-04-26 11:14 60.29181 -53.60682 41069 ft 520 kts 95°
2026-04-26 11:15 60.28209 -53.46235 41062 ft 521 kts 95°
2026-04-26 11:15 60.27222 -53.31783 41053 ft 520 kts 95°
2026-04-26 11:16 60.26216 -53.17333 41041 ft 521 kts 95°
2026-04-26 11:16 60.25196 -53.02878 41039 ft 521 kts 95°
2026-04-26 11:17 60.24158 -52.88422 41025 ft 522 kts 95°
2026-04-26 11:17 60.23105 -52.73979 41016 ft 522 kts 96°
2026-04-26 11:18 60.22035 -52.59518 41014 ft 523 kts 96°
2026-04-26 11:18 60.20948 -52.45055 40998 ft 523 kts 96°
2026-04-26 11:19 60.19845 -52.30589 40984 ft 524 kts 96°
2026-04-26 11:19 60.18723 -52.16122 40981 ft 524 kts 96°
2026-04-26 11:20 60.17779 -52.04106 40964 ft 525 kts 96°
2026-04-26 11:20 60.16433 -51.87175 40957 ft 525 kts 96°
2026-04-26 11:21 60.15259 -51.72701 40947 ft 526 kts 96°
2026-04-26 11:21 60.14077 -51.58244 40939 ft 525 kts 97°
2026-04-26 11:22 60.12871 -51.43778 40925 ft 526 kts 97°
2026-04-26 11:22 60.11661 -51.29411 40922 ft 526 kts 97°
2026-04-26 11:23 60.10424 -51.14951 40908 ft 526 kts 97°
2026-04-26 11:23 60.09164 -51.00399 40906 ft 526 kts 97°
2026-04-26 11:24 60.07903 -50.86040 40892 ft 527 kts 97°
2026-04-26 11:24 60.06610 -50.71495 40890 ft 527 kts 97°
2026-04-26 11:25 60.05309 -50.57067 40880 ft 528 kts 98°
2026-04-26 11:25 60.03999 -50.42726 40875 ft 527 kts 98°
2026-04-26 11:26 60.02667 -50.28296 40856 ft 528 kts 98°
2026-04-26 11:26 60.01316 -50.13880 40850 ft 527 kts 98°
2026-04-26 11:27 60.00170 -49.99435 40878 ft 524 kts 88°
2026-04-26 11:27 60.00557 -49.84954 40838 ft 522 kts 83°
2026-04-26 11:28 60.01091 -49.70483 40834 ft 522 kts 83°
2026-04-26 11:28 60.01593 -49.56005 40821 ft 523 kts 83°
2026-04-26 11:29 60.02088 -49.41498 40815 ft 523 kts 84°
2026-04-26 11:29 60.02564 -49.26967 40808 ft 523 kts 84°
2026-04-26 11:30 60.02953 -49.14801 40804 ft 524 kts 84°
2026-04-26 11:30 60.03471 -48.97896 40792 ft 524 kts 84°
2026-04-26 11:31 60.03903 -48.83329 40787 ft 525 kts 84°
2026-04-26 11:31 60.04317 -48.68750 40780 ft 525 kts 85°
2026-04-26 11:32 60.04717 -48.54155 40771 ft 526 kts 85°
2026-04-26 11:32 60.05098 -48.39546 40770 ft 526 kts 85°
2026-04-26 11:33 60.05467 -48.24923 40758 ft 526 kts 85°
2026-04-26 11:33 60.05817 -48.10287 40759 ft 526 kts 85°
2026-04-26 11:34 60.06152 -47.95655 40763 ft 527 kts 86°
2026-04-26 11:34 60.06473 -47.80992 40755 ft 527 kts 86°
2026-04-26 11:35 60.06775 -47.66320 40750 ft 528 kts 86°
2026-04-26 11:35 60.07015 -47.54118 40749 ft 527 kts 86°
2026-04-26 11:36 60.07333 -47.36963 40744 ft 528 kts 87°
2026-04-26 11:36 60.07588 -47.22279 40747 ft 527 kts 87°
2026-04-26 11:37 60.07826 -47.07594 40739 ft 528 kts 87°
2026-04-26 11:37 60.08046 -46.93005 40741 ft 527 kts 88°
2026-04-26 11:38 60.08253 -46.78226 40739 ft 528 kts 88°
2026-04-26 11:38 60.08442 -46.63619 40741 ft 528 kts 88°
2026-04-26 11:39 60.08616 -46.48903 40741 ft 529 kts 88°
2026-04-26 11:39 60.08773 -46.34181 40738 ft 528 kts 88°
2026-04-26 11:40 60.08914 -46.19448 40731 ft 529 kts 89°
2026-04-26 11:40 60.09038 -46.04712 40730 ft 529 kts 89°
2026-04-26 11:42 60.09377 -45.44639 40729 ft 543 kts 89°
2026-04-26 11:43 60.09419 -45.29503 40729 ft 543 kts 89°
2026-04-26 11:43 60.09444 -45.14359 40728 ft 543 kts 90°
2026-04-26 11:44 60.09452 -44.99207 40725 ft 544 kts 90°
2026-04-26 11:44 60.09442 -44.84050 40724 ft 544 kts 90°
2026-04-26 11:45 60.09416 -44.68917 40722 ft 543 kts 90°
2026-04-26 11:45 60.09371 -44.53769 40722 ft 544 kts 90°
2026-04-26 11:46 60.09310 -44.38726 40731 ft 543 kts 90°
2026-04-26 11:46 60.09232 -44.23589 40726 ft 543 kts 91°
2026-04-26 11:47 60.09136 -44.08458 40730 ft 543 kts 91°
2026-04-26 11:47 60.09023 -43.93334 40736 ft 543 kts 91°
2026-04-26 11:48 60.08892 -43.78219 40738 ft 542 kts 91°
2026-04-26 11:48 60.08745 -43.63116 40740 ft 542 kts 91°
2026-04-26 11:49 60.08581 -43.48040 40745 ft 542 kts 91°
2026-04-26 11:49 60.08399 -43.32957 40746 ft 541 kts 92°
2026-04-26 11:50 60.08201 -43.17879 40749 ft 541 kts 92°
2026-04-26 11:50 60.07985 -43.02801 40746 ft 542 kts 92°
2026-04-26 11:51 60.07751 -42.87698 40749 ft 543 kts 92°
2026-04-26 11:51 60.07500 -42.72563 40751 ft 544 kts 92°
2026-04-26 11:52 60.07278 -42.59981 40742 ft 544 kts 92°
2026-04-26 11:52 60.06945 -42.42262 40736 ft 545 kts 93°
2026-04-26 11:53 60.06644 -42.27198 40732 ft 545 kts 93°
2026-04-26 11:54 60.06156 -42.04466 40726 ft 545 kts 94°
2026-04-26 11:54 60.05808 -41.89327 40719 ft 544 kts 94°
2026-04-26 11:55 60.05446 -41.74217 40712 ft 543 kts 94°
2026-04-26 11:55 60.05131 -41.61701 40710 ft 542 kts 94°
2026-04-26 11:56 60.04738 -41.46664 40708 ft 540 kts 94°
2026-04-26 11:56 60.04329 -41.31663 40702 ft 540 kts 94°
2026-04-26 11:57 60.03903 -41.16671 40694 ft 540 kts 94°
2026-04-26 11:57 60.03460 -41.01682 40699 ft 540 kts 94°
2026-04-26 11:58 60.02999 -40.86692 40693 ft 540 kts 95°
2026-04-26 11:58 60.02523 -40.71722 40695 ft 540 kts 95°
2026-04-26 11:59 60.02028 -40.56739 40694 ft 540 kts 95°
2026-04-26 11:59 60.01517 -40.41763 40694 ft 540 kts 95°
2026-04-26 12:00 60.00990 -40.26797 40695 ft 540 kts 95°
2026-04-26 12:00 60.00445 -40.11836 40692 ft 540 kts 96°
2026-04-26 12:01 60.00114 -39.96861 40731 ft 541 kts 87°
2026-04-26 12:01 60.00679 -39.81848 40705 ft 542 kts 87°
2026-04-26 12:02 60.01218 -39.66823 40696 ft 542 kts 88°
2026-04-26 12:02 60.01737 -39.51804 40700 ft 542 kts 87°
2026-04-26 12:03 60.02247 -39.36760 40701 ft 542 kts 88°
2026-04-26 12:03 60.02732 -39.21713 40702 ft 542 kts 88°
2026-04-26 12:04 60.03207 -39.06659 40700 ft 542 kts 88°
2026-04-26 12:04 60.03660 -38.91592 40700 ft 543 kts 88°
2026-04-26 12:05 60.04099 -38.76521 40698 ft 543 kts 88°
2026-04-26 12:05 60.04515 -38.61565 40700 ft 543 kts 88°
2026-04-26 12:06 60.04920 -38.46483 40697 ft 543 kts 89°
2026-04-26 12:06 60.05306 -38.31390 40701 ft 543 kts 89°
2026-04-26 12:07 60.05676 -38.16294 40702 ft 543 kts 89°
2026-04-26 12:07 60.06028 -38.01196 40703 ft 543 kts 89°
2026-04-26 12:08 60.06363 -37.86099 40707 ft 543 kts 89°
2026-04-26 12:08 60.06681 -37.70998 40706 ft 543 kts 90°
2026-04-26 12:09 60.06981 -37.55890 40710 ft 543 kts 90°
2026-04-26 12:09 60.07264 -37.40794 40709 ft 543 kts 90°
2026-04-26 12:10 60.07530 -37.25678 40708 ft 543 kts 90°
2026-04-26 12:10 60.07779 -37.10555 40711 ft 543 kts 90°
2026-04-26 12:11 60.08011 -36.95427 40715 ft 543 kts 90°
2026-04-26 12:11 60.08226 -36.80299 40719 ft 543 kts 90°
2026-04-26 12:12 60.08423 -36.65169 40722 ft 543 kts 91°
2026-04-26 12:12 60.08602 -36.50136 40722 ft 543 kts 91°
2026-04-26 12:13 60.08764 -36.35014 40723 ft 543 kts 91°
2026-04-26 12:13 60.08910 -36.19870 40724 ft 544 kts 91°
2026-04-26 12:14 60.09038 -36.04724 40737 ft 544 kts 91°
2026-04-26 12:14 60.09149 -35.89573 40726 ft 544 kts 91°
2026-04-26 12:15 60.09243 -35.74419 40743 ft 544 kts 92°
2026-04-26 12:15 60.09320 -35.59262 40746 ft 544 kts 92°
2026-04-26 12:16 60.09379 -35.44102 40743 ft 544 kts 92°
2026-04-26 12:16 60.09420 -35.28946 40746 ft 544 kts 92°
2026-04-26 12:17 60.09445 -35.13779 40754 ft 544 kts 92°
2026-04-26 12:17 60.09452 -34.98605 40756 ft 544 kts 92°
2026-04-26 12:18 60.09442 -34.83529 40748 ft 545 kts 92°
2026-04-26 12:18 60.09414 -34.68349 40764 ft 545 kts 92°
2026-04-26 12:19 60.09369 -34.53181 40756 ft 545 kts 93°
2026-04-26 12:19 60.09307 -34.37988 40761 ft 545 kts 93°
2026-04-26 12:20 60.09227 -34.22798 40766 ft 545 kts 93°
2026-04-26 12:20 60.09130 -34.07608 40771 ft 545 kts 93°
2026-04-26 12:21 60.09015 -33.92416 40769 ft 545 kts 93°
2026-04-26 12:21 60.08884 -33.77224 40773 ft 545 kts 94°
2026-04-26 12:22 60.08734 -33.62048 40772 ft 545 kts 94°
2026-04-26 12:22 60.08567 -33.46853 40779 ft 546 kts 94°
2026-04-26 12:23 60.08383 -33.31658 40781 ft 546 kts 94°
2026-04-26 12:23 60.08181 -33.16461 40780 ft 546 kts 94°
2026-04-26 12:24 60.07962 -33.01262 40788 ft 546 kts 94°
2026-04-26 12:24 60.07725 -32.86063 40791 ft 546 kts 94°
2026-04-26 12:25 60.07337 -32.63256 40802 ft 546 kts 94°
2026-04-26 12:25 60.07057 -32.48051 40803 ft 546 kts 95°
2026-04-26 12:26 60.06759 -32.32860 40805 ft 547 kts 95°
2026-04-26 12:26 60.06443 -32.17653 40806 ft 547 kts 95°
2026-04-26 12:27 60.06110 -32.02445 40811 ft 547 kts 95°
2026-04-26 12:27 60.05759 -31.87236 40816 ft 547 kts 95°
2026-04-26 12:28 60.05391 -31.72024 40818 ft 547 kts 95°
2026-04-26 12:28 60.05008 -31.56915 40821 ft 547 kts 95°
2026-04-26 12:29 60.04605 -31.41721 40826 ft 547 kts 95°
2026-04-26 12:30 60.03967 -31.18906 40831 ft 547 kts 96°
2026-04-26 12:30 60.03520 -31.03696 40834 ft 548 kts 96°
2026-04-26 12:31 60.02816 -30.80879 40837 ft 548 kts 96°
2026-04-26 12:31 60.02325 -30.65670 40840 ft 548 kts 96°
2026-04-26 12:32 60.01816 -30.50462 40842 ft 548 kts 96°
2026-04-26 12:33 60.01020 -30.27652 40848 ft 548 kts 96°
2026-04-26 12:33 60.00468 -30.12463 40851 ft 549 kts 96°
2026-04-26 12:34 60.00103 -29.97235 40897 ft 550 kts 87°
2026-04-26 12:34 60.00674 -29.81949 40869 ft 552 kts 87°
2026-04-26 12:35 60.01225 -29.66652 40874 ft 552 kts 88°
2026-04-26 12:35 60.01752 -29.51351 40874 ft 552 kts 88°
2026-04-26 12:36 60.02271 -29.36043 40885 ft 552 kts 88°
2026-04-26 12:36 60.02760 -29.20830 40880 ft 552 kts 88°
2026-04-26 12:37 60.03242 -29.05522 40884 ft 552 kts 88°
2026-04-26 12:37 60.03701 -28.90192 40892 ft 552 kts 88°
2026-04-26 12:38 60.04147 -28.74854 40893 ft 552 kts 88°
2026-04-26 12:38 60.04571 -28.59510 40894 ft 552 kts 88°
2026-04-26 12:39 60.04981 -28.44159 40897 ft 552 kts 88°
2026-04-26 12:39 60.05371 -28.28800 40896 ft 553 kts 88°
2026-04-26 12:40 60.05744 -28.13433 40901 ft 553 kts 89°
2026-04-26 12:40 60.06099 -27.98057 40899 ft 553 kts 89°
2026-04-26 12:41 60.06436 -27.82689 40902 ft 553 kts 89°
2026-04-26 12:41 60.06756 -27.67286 40909 ft 553 kts 89°
2026-04-26 12:42 60.07058 -27.51883 40905 ft 554 kts 89°
2026-04-26 12:42 60.07342 -27.36472 40908 ft 554 kts 89°
2026-04-26 12:43 60.07608 -27.21075 40913 ft 554 kts 89°
2026-04-26 12:43 60.07856 -27.05657 40912 ft 554 kts 89°
2026-04-26 12:44 60.08049 -26.92834 40915 ft 554 kts 89°
2026-04-26 12:44 60.08265 -26.77408 40922 ft 554 kts 89°
2026-04-26 12:45 60.08462 -26.61994 40919 ft 554 kts 89°
2026-04-26 12:45 60.08642 -26.46560 40919 ft 554 kts 90°
2026-04-26 12:46 60.08804 -26.31124 40923 ft 554 kts 90°
2026-04-26 12:46 60.09076 -26.15689 40953 ft 554 kts 81°
2026-04-26 12:46 60.09918 -26.08173 40960 ft 555 kts 70°
2026-04-26 12:47 60.11230 -26.00896 40942 ft 555 kts 69°
2026-04-26 12:47 60.13923 -25.86381 40945 ft 555 kts 71°
2026-04-26 12:48 60.16449 -25.71738 40945 ft 555 kts 70°
2026-04-26 12:48 60.19067 -25.57154 40944 ft 555 kts 70°
2026-04-26 12:49 60.21593 -25.42497 40944 ft 555 kts 70°
2026-04-26 12:49 60.24152 -25.27854 40946 ft 555 kts 70°
2026-04-26 12:50 60.26663 -25.13172 40949 ft 554 kts 70°
2026-04-26 12:50 60.29173 -24.98500 40950 ft 554 kts 71°
2026-04-26 12:51 60.31658 -24.83787 40944 ft 554 kts 71°
2026-04-26 12:51 60.34132 -24.69059 40947 ft 554 kts 71°
2026-04-26 12:52 60.36587 -24.54309 40947 ft 554 kts 71°
2026-04-26 12:52 60.39024 -24.39549 40948 ft 553 kts 71°
2026-04-26 12:53 60.41443 -24.24780 40943 ft 553 kts 71°
2026-04-26 12:53 60.43827 -24.10099 40942 ft 552 kts 71°
2026-04-26 12:54 60.46209 -23.95311 40947 ft 552 kts 71°
2026-04-26 12:54 60.48571 -23.80526 40944 ft 552 kts 72°
2026-04-26 12:55 60.50917 -23.65712 40945 ft 551 kts 72°
2026-04-26 12:55 60.53246 -23.50883 40943 ft 551 kts 72°
2026-04-26 12:56 60.55558 -23.36038 40942 ft 551 kts 72°
2026-04-26 12:56 60.57853 -23.21173 40941 ft 551 kts 72°
2026-04-26 12:57 60.60132 -23.06291 40944 ft 551 kts 72°
2026-04-26 12:57 60.62393 -22.91389 40943 ft 551 kts 72°
2026-04-26 12:58 60.65751 -22.69017 40942 ft 551 kts 73°
2026-04-26 12:58 60.67970 -22.54068 40945 ft 551 kts 73°
2026-04-26 12:59 60.70174 -22.39082 40946 ft 551 kts 73°
2026-04-26 12:59 60.72359 -22.24103 40939 ft 550 kts 73°
2026-04-26 13:00 60.74527 -22.09092 40938 ft 550 kts 73°
2026-04-26 13:00 60.76676 -21.94085 40937 ft 550 kts 73°
2026-04-26 13:01 60.78811 -21.79035 40943 ft 550 kts 73°
2026-04-26 13:01 60.80915 -21.64070 40946 ft 550 kts 73°
2026-04-26 13:02 60.83017 -21.48982 40941 ft 551 kts 74°
2026-04-26 13:02 60.85101 -21.33873 40945 ft 551 kts 74°
2026-04-26 13:03 60.87166 -21.18765 40954 ft 550 kts 74°
2026-04-26 13:03 60.89216 -21.03623 40955 ft 550 kts 74°
2026-04-26 13:04 60.91248 -20.88464 40960 ft 550 kts 74°
2026-04-26 13:04 60.93265 -20.73275 40961 ft 550 kts 75°
2026-04-26 13:05 60.95261 -20.58093 40955 ft 549 kts 75°
2026-04-26 13:05 60.97242 -20.42880 40965 ft 551 kts 75°
2026-04-26 13:06 60.99203 -20.27662 40949 ft 549 kts 75°
2026-04-26 13:06 61.01147 -20.12440 40951 ft 549 kts 75°
2026-04-26 13:07 61.03069 -19.97223 40958 ft 549 kts 75°
2026-04-26 13:07 61.04976 -19.81974 40960 ft 549 kts 75°
2026-04-26 13:08 61.06866 -19.66710 40953 ft 549 kts 75°
2026-04-26 13:08 61.08738 -19.51429 40961 ft 549 kts 75°
2026-04-26 13:09 61.10592 -19.36135 40968 ft 549 kts 76°
2026-04-26 13:09 61.12430 -19.20816 40966 ft 549 kts 76°
2026-04-26 13:10 61.14251 -19.05480 40963 ft 549 kts 76°
2026-04-26 13:10 61.16054 -18.90124 40968 ft 549 kts 76°
2026-04-26 13:11 61.17841 -18.74744 40971 ft 549 kts 76°
2026-04-26 13:11 61.19597 -18.59462 40973 ft 548 kts 76°
2026-04-26 13:12 61.21347 -18.44065 40977 ft 548 kts 77°
2026-04-26 13:12 61.23077 -18.28674 40980 ft 548 kts 77°
2026-04-26 13:13 61.24791 -18.13253 40982 ft 548 kts 77°
2026-04-26 13:13 61.26486 -17.97820 40982 ft 548 kts 77°
2026-04-26 13:14 61.28164 -17.82377 40990 ft 547 kts 77°
2026-04-26 13:14 61.29823 -17.66923 40989 ft 547 kts 77°
2026-04-26 13:15 61.31465 -17.51457 40990 ft 547 kts 77°
2026-04-26 13:15 61.32814 -17.38604 40993 ft 547 kts 78°
2026-04-26 13:16 61.34692 -17.20498 40979 ft 547 kts 78°
2026-04-26 13:16 61.36280 -17.04998 40987 ft 547 kts 78°
2026-04-26 13:17 61.38626 -16.81729 40985 ft 546 kts 78°
2026-04-26 13:18 61.40932 -16.58438 40985 ft 546 kts 78°
2026-04-26 13:19 61.43196 -16.35124 40996 ft 546 kts 79°
2026-04-26 13:19 61.44683 -16.19570 40995 ft 546 kts 79°
2026-04-26 13:20 61.46140 -16.04127 40998 ft 545 kts 79°
2026-04-26 13:20 61.47591 -15.88553 41000 ft 545 kts 79°
2026-04-26 13:21 61.49023 -15.72969 41004 ft 545 kts 79°
2026-04-26 13:21 61.50438 -15.57376 41000 ft 545 kts 79°
2026-04-26 13:22 61.51833 -15.41774 41009 ft 545 kts 79°
2026-04-26 13:22 61.53211 -15.26163 41012 ft 545 kts 80°
2026-04-26 13:23 61.54571 -15.10543 41008 ft 544 kts 80°
2026-04-26 13:23 61.55911 -14.94930 41014 ft 544 kts 80°
2026-04-26 13:24 61.57233 -14.79293 41017 ft 544 kts 80°
2026-04-26 13:24 61.58538 -14.63647 41015 ft 544 kts 81°
2026-04-26 13:25 61.59824 -14.47993 41021 ft 544 kts 81°
2026-04-26 13:25 61.61092 -14.32331 41019 ft 544 kts 81°
2026-04-26 13:26 61.62342 -14.16659 41026 ft 544 kts 81°
2026-04-26 13:26 61.63574 -14.00981 41022 ft 543 kts 81°
2026-04-26 13:27 61.64787 -13.85295 41031 ft 543 kts 81°
2026-04-26 13:27 61.65980 -13.69618 41031 ft 543 kts 81°
2026-04-26 13:28 61.67157 -13.53918 41029 ft 543 kts 82°
2026-04-26 13:28 61.68315 -13.38208 41039 ft 543 kts 82°
2026-04-26 13:29 61.69448 -13.22596 41046 ft 543 kts 82°
2026-04-26 13:29 61.70569 -13.06871 41048 ft 543 kts 82°
2026-04-26 13:30 61.71673 -12.91137 41048 ft 542 kts 82°
2026-04-26 13:30 61.72758 -12.75395 41050 ft 542 kts 82°
2026-04-26 13:31 61.73825 -12.59661 41049 ft 542 kts 82°
2026-04-26 13:31 61.74873 -12.43906 41056 ft 542 kts 83°
2026-04-26 13:32 61.75904 -12.28140 41056 ft 542 kts 83°
2026-04-26 13:32 61.76747 -12.15028 41054 ft 542 kts 83°
2026-04-26 13:33 61.77746 -11.99225 41054 ft 542 kts 83°
2026-04-26 13:33 61.78725 -11.83434 41064 ft 543 kts 83°
2026-04-26 13:34 61.79687 -11.67614 41061 ft 542 kts 83°
2026-04-26 13:34 61.80631 -11.51787 41069 ft 542 kts 83°
2026-04-26 13:35 61.81556 -11.35948 41061 ft 543 kts 84°
2026-04-26 13:35 61.82464 -11.20099 41068 ft 543 kts 84°
2026-04-26 13:36 61.83353 -11.04238 41074 ft 543 kts 84°
2026-04-26 13:36 61.84224 -10.88368 41072 ft 543 kts 84°
2026-04-26 13:37 61.85076 -10.72511 41084 ft 543 kts 84°
2026-04-26 13:37 61.85910 -10.56625 41078 ft 543 kts 84°
2026-04-26 13:38 61.86726 -10.40725 41092 ft 543 kts 85°
2026-04-26 13:38 61.87524 -10.24813 41093 ft 543 kts 85°
2026-04-26 13:39 61.88304 -10.08895 41102 ft 543 kts 85°
2026-04-26 13:39 61.89065 -9.92977 41100 ft 543 kts 85°
2026-04-26 13:40 61.89807 -9.77053 41105 ft 543 kts 85°
2026-04-26 13:40 61.90532 -9.61117 41106 ft 543 kts 85°
2026-04-26 13:41 61.91237 -9.45190 41105 ft 543 kts 85°
2026-04-26 13:41 61.91924 -9.29238 41109 ft 543 kts 85°
2026-04-26 13:42 61.92594 -9.13275 41115 ft 543 kts 86°
2026-04-26 13:42 61.93244 -8.97299 41118 ft 543 kts 86°
2026-04-26 13:43 61.93873 -8.81420 41122 ft 543 kts 86°
2026-04-26 13:43 61.94487 -8.65422 41125 ft 543 kts 86°
2026-04-26 13:44 61.95082 -8.49435 41126 ft 543 kts 86°
2026-04-26 13:44 61.95659 -8.33429 41133 ft 543 kts 86°
2026-04-26 13:45 61.96218 -8.17418 41135 ft 543 kts 86°
2026-04-26 13:45 61.96758 -8.01404 41139 ft 543 kts 86°
2026-04-26 13:46 61.97279 -7.85382 41150 ft 543 kts 86°
2026-04-26 13:46 61.97782 -7.69347 41164 ft 544 kts 87°
2026-04-26 13:47 61.98266 -7.53300 41170 ft 543 kts 87°
2026-04-26 13:47 61.98733 -7.37245 41175 ft 544 kts 87°
2026-04-26 13:48 61.99179 -7.21196 41177 ft 544 kts 87°
2026-04-26 13:48 61.99609 -7.05120 41175 ft 544 kts 87°
2026-04-26 13:49 62.00019 -6.89049 41176 ft 544 kts 88°
2026-04-26 13:49 62.00410 -6.72986 41174 ft 543 kts 88°
2026-04-26 13:50 62.00782 -6.56930 41180 ft 543 kts 88°
2026-04-26 13:50 62.01135 -6.40883 41185 ft 543 kts 88°
2026-04-26 13:51 62.01470 -6.24837 41188 ft 542 kts 88°
2026-04-26 13:51 62.01786 -6.08785 41189 ft 543 kts 88°
2026-04-26 13:52 62.02083 -5.92743 41193 ft 543 kts 88°
2026-04-26 13:52 62.02362 -5.76672 41201 ft 543 kts 88°
2026-04-26 13:53 62.02620 -5.60704 41205 ft 543 kts 89°
2026-04-26 13:53 62.02862 -5.44624 41205 ft 543 kts 89°
2026-04-26 13:54 62.03085 -5.28543 41217 ft 543 kts 89°
2026-04-26 13:54 62.03289 -5.12462 41222 ft 543 kts 89°
2026-04-26 13:55 62.03533 -4.90960 41221 ft 543 kts 89°
2026-04-26 13:56 62.03790 -4.64229 41234 ft 543 kts 89°
2026-04-26 13:56 62.03919 -4.48151 41236 ft 542 kts 89°
2026-04-26 13:57 62.04030 -4.32079 41246 ft 542 kts 89°
2026-04-26 13:57 62.04122 -4.16021 41242 ft 542 kts 90°
2026-04-26 13:58 62.04195 -3.99962 41254 ft 542 kts 90°
2026-04-26 13:58 62.04250 -3.83906 41259 ft 541 kts 90°
2026-04-26 13:59 62.04285 -3.67859 41252 ft 541 kts 90°
2026-04-26 13:59 62.04303 -3.51816 41266 ft 541 kts 90°
2026-04-26 14:00 62.04282 -3.19745 41272 ft 541 kts 90°
2026-04-26 14:01 62.04243 -3.03735 41272 ft 541 kts 90°
2026-04-26 14:01 62.04187 -2.87718 41275 ft 540 kts 90°
2026-04-26 14:02 62.04111 -2.71703 41277 ft 540 kts 91°
2026-04-26 14:02 62.04017 -2.55699 41295 ft 540 kts 91°
2026-04-26 14:03 62.03905 -2.39720 41299 ft 540 kts 91°
2026-04-26 14:03 62.03774 -2.23735 41305 ft 539 kts 91°
2026-04-26 14:04 62.03625 -2.07757 41309 ft 539 kts 91°
2026-04-26 14:04 62.03458 -1.91786 41304 ft 539 kts 91°
2026-04-26 14:05 62.03272 -1.75819 41311 ft 539 kts 91°
2026-04-26 14:05 62.03067 -1.59855 41313 ft 539 kts 91°
2026-04-26 14:06 62.02846 -1.43999 41311 ft 539 kts 91°
2026-04-26 14:06 62.02604 -1.27956 41315 ft 539 kts 92°
2026-04-26 14:07 62.02344 -1.12006 41319 ft 539 kts 92°
2026-04-26 14:07 62.02068 -0.96166 41325 ft 539 kts 92°
2026-04-26 14:08 62.01772 -0.80224 41326 ft 539 kts 92°
2026-04-26 14:08 62.01458 -0.64282 41331 ft 539 kts 92°
2026-04-26 14:09 62.01125 -0.48344 41343 ft 539 kts 92°
2026-04-26 14:09 62.00774 -0.32404 41346 ft 539 kts 92°
2026-04-26 14:10 62.00404 -0.16484 41340 ft 539 kts 92°
2026-04-26 14:10 62.00105 -0.00545 41351 ft 539 kts 85°
2026-04-26 14:11 62.01784 0.23089 41351 ft 539 kts 80°
2026-04-26 14:11 62.02957 0.38851 41347 ft 539 kts 80°
2026-04-26 14:12 62.04131 0.54622 41361 ft 539 kts 80°
2026-04-26 14:12 62.05279 0.70404 41350 ft 539 kts 81°
2026-04-26 14:13 62.06974 0.94119 41363 ft 539 kts 81°
2026-04-26 14:14 62.08077 1.09952 41368 ft 540 kts 81°
2026-04-26 14:14 62.09167 1.25799 41356 ft 540 kts 81°
2026-04-26 14:15 62.10237 1.41664 41361 ft 540 kts 81°
2026-04-26 14:15 62.11290 1.57527 41369 ft 540 kts 81°
2026-04-26 14:16 62.12324 1.73424 41368 ft 540 kts 81°
2026-04-26 14:16 62.13342 1.89336 41371 ft 540 kts 81°
2026-04-26 14:17 62.14334 2.05159 41367 ft 541 kts 81°
2026-04-26 14:17 62.15316 2.21104 41367 ft 541 kts 82°
2026-04-26 14:18 62.16279 2.37064 41365 ft 541 kts 82°
2026-04-26 14:18 62.17225 2.53040 41371 ft 541 kts 82°
2026-04-26 14:19 62.18150 2.69009 41367 ft 541 kts 82°
2026-04-26 14:19 62.18907 2.82310 41371 ft 541 kts 82°
2026-04-26 14:20 62.19807 2.98426 41372 ft 541 kts 82°
2026-04-26 14:20 62.20681 3.14442 41370 ft 541 kts 82°
2026-04-26 14:21 62.21538 3.30471 41373 ft 541 kts 82°
2026-04-26 14:21 62.22376 3.46510 41373 ft 541 kts 82°
2026-04-26 14:22 62.23194 3.62533 41372 ft 541 kts 82°
2026-04-26 14:22 62.23995 3.78583 41372 ft 541 kts 82°
2026-04-26 14:23 62.24777 3.94639 41369 ft 541 kts 82°
2026-04-26 14:23 62.25541 4.10702 41369 ft 541 kts 82°
2026-04-26 14:24 62.26281 4.26665 41370 ft 541 kts 83°
2026-04-26 14:24 62.27007 4.42744 41369 ft 541 kts 83°
2026-04-26 14:25 62.27715 4.58830 41368 ft 541 kts 83°
2026-04-26 14:25 62.28403 4.74906 41371 ft 541 kts 83°
2026-04-26 14:26 62.29074 4.91018 41363 ft 541 kts 83°
2026-04-26 14:26 62.29727 5.07130 41370 ft 541 kts 83°
2026-04-26 14:27 62.30360 5.23255 41357 ft 541 kts 83°
2026-04-26 14:27 62.30975 5.39372 41364 ft 542 kts 83°
2026-04-26 14:28 62.31571 5.55520 41359 ft 542 kts 83°
2026-04-26 14:28 62.32150 5.71680 41360 ft 542 kts 83°
2026-04-26 14:29 62.32729 5.87845 41361 ft 542 kts 83°
2026-04-26 14:29 62.33386 6.03995 41357 ft 542 kts 83°
2026-04-26 14:30 62.33963 6.20169 41359 ft 542 kts 83°
2026-04-26 14:30 62.34559 6.36345 41355 ft 542 kts 83°
2026-04-26 14:31 62.35114 6.52514 41361 ft 542 kts 83°
2026-04-26 14:31 62.35663 6.68704 41360 ft 542 kts 83°
2026-04-26 14:32 62.36187 6.84901 41356 ft 542 kts 84°
2026-04-26 14:32 62.36695 7.01103 41349 ft 542 kts 84°
2026-04-26 14:33 62.37183 7.17302 41351 ft 542 kts 84°
2026-04-26 14:33 62.37652 7.33515 41341 ft 542 kts 84°
2026-04-26 14:34 62.38103 7.49729 41336 ft 542 kts 84°
2026-04-26 14:34 62.38534 7.65951 41324 ft 542 kts 84°
2026-04-26 14:35 62.38944 7.82070 41329 ft 542 kts 84°
2026-04-26 14:35 62.39339 7.98300 41330 ft 542 kts 84°
2026-04-26 14:36 62.39713 8.14532 41331 ft 542 kts 84°
2026-04-26 14:36 62.40072 8.30879 41324 ft 542 kts 84°
2026-04-26 14:37 62.40407 8.47001 41324 ft 542 kts 84°
2026-04-26 14:37 62.40725 8.63248 41318 ft 542 kts 84°
2026-04-26 14:38 62.41025 8.79503 41315 ft 542 kts 85°
2026-04-26 14:38 62.41305 8.95764 41309 ft 542 kts 85°
2026-04-26 14:39 62.41568 9.12031 41306 ft 543 kts 85°
2026-04-26 14:39 62.41810 9.28305 41301 ft 543 kts 85°
2026-04-26 14:40 62.42034 9.44589 41298 ft 543 kts 85°
2026-04-26 14:40 62.42240 9.60864 41294 ft 543 kts 85°
2026-04-26 14:41 62.42426 9.77162 41293 ft 543 kts 85°
2026-04-26 14:41 62.42593 9.93470 41282 ft 544 kts 85°
2026-04-26 14:42 62.42741 10.09796 41287 ft 544 kts 85°
2026-04-26 14:42 62.42871 10.26140 41287 ft 545 kts 86°
2026-04-26 14:43 62.42981 10.42498 41281 ft 545 kts 86°
2026-04-26 14:43 62.43072 10.58871 41277 ft 546 kts 86°
2026-04-26 14:44 62.43144 10.75245 41259 ft 546 kts 86°
2026-04-26 14:44 62.43197 10.91545 41231 ft 547 kts 86°
2026-04-26 14:45 62.43231 11.07971 41206 ft 547 kts 86°
2026-04-26 14:45 62.43245 11.24410 41193 ft 548 kts 86°
2026-04-26 14:46 62.43299 11.40857 41189 ft 548 kts 85°
2026-04-26 14:46 62.43383 11.57313 41204 ft 548 kts 86°
2026-04-26 14:47 62.43405 11.73776 41221 ft 549 kts 86°
2026-04-26 14:47 62.43441 11.90256 41240 ft 549 kts 86°
2026-04-26 14:48 62.43433 12.06740 41263 ft 549 kts 86°
2026-04-26 14:48 62.43263 12.23236 41260 ft 552 kts 91°
2026-04-26 14:49 62.42657 12.39737 41249 ft 552 kts 91°
2026-04-26 14:49 62.42063 12.56249 41244 ft 552 kts 91°
2026-04-26 14:50 62.41433 12.72748 41238 ft 552 kts 91°
2026-04-26 14:50 62.40791 12.89242 41229 ft 552 kts 91°
2026-04-26 14:51 62.40126 13.05724 41223 ft 552 kts 92°
2026-04-26 14:51 62.39381 13.22196 41229 ft 553 kts 96°
2026-04-26 14:52 62.38126 13.38578 41209 ft 554 kts 96°
2026-04-26 14:52 62.36862 13.54960 41198 ft 554 kts 96°
2026-04-26 14:53 62.35577 13.71314 41200 ft 555 kts 96°
2026-04-26 14:53 62.34278 13.87569 41196 ft 555 kts 96°
2026-04-26 14:54 62.32955 14.03930 41189 ft 555 kts 97°
2026-04-26 14:54 62.31606 14.20293 41165 ft 556 kts 97°
2026-04-26 14:55 62.30240 14.36664 41149 ft 557 kts 97°
2026-04-26 14:55 62.28850 14.53039 41152 ft 557 kts 97°
2026-04-26 14:56 62.27442 14.69421 41144 ft 558 kts 97°
2026-04-26 14:56 62.26012 14.85786 41148 ft 558 kts 97°
2026-04-26 14:57 62.24563 15.02152 41146 ft 558 kts 97°
2026-04-26 14:57 62.23093 15.18510 41140 ft 558 kts 97°
2026-04-26 14:58 62.21605 15.34855 41138 ft 559 kts 98°
2026-04-26 14:58 62.20096 15.51190 41135 ft 559 kts 98°
2026-04-26 14:59 62.18578 15.67396 41127 ft 558 kts 98°
2026-04-26 14:59 62.17033 15.83686 41119 ft 558 kts 98°
2026-04-26 15:00 62.15458 16.00058 41111 ft 558 kts 98°
2026-04-26 15:00 62.13889 16.16167 41103 ft 558 kts 98°
2026-04-26 15:01 62.12288 16.32384 41093 ft 558 kts 98°
2026-04-26 15:01 62.10669 16.48577 41088 ft 557 kts 98°
2026-04-26 15:02 62.09032 16.64742 41079 ft 557 kts 99°
2026-04-26 15:02 62.07376 16.80889 41078 ft 557 kts 99°
2026-04-26 15:03 62.05702 16.97013 41063 ft 557 kts 99°
2026-04-26 15:03 62.04299 17.10377 41063 ft 556 kts 99°
2026-04-26 15:04 62.02501 17.27315 41050 ft 556 kts 99°
2026-04-26 15:04 62.00777 17.43347 41046 ft 556 kts 99°
2026-04-26 15:05 61.99035 17.59366 41043 ft 555 kts 99°
2026-04-26 15:05 61.97274 17.75363 41034 ft 555 kts 100°
2026-04-26 15:06 61.95494 17.91341 41040 ft 555 kts 100°
2026-04-26 15:06 61.94003 18.04594 41037 ft 556 kts 100°
2026-04-26 15:07 61.91275 18.28513 41042 ft 556 kts 100°
2026-04-26 15:07 61.89133 18.47019 41029 ft 556 kts 101°
2026-04-26 15:08 61.87572 18.60358 41025 ft 556 kts 101°
2026-04-26 15:08 61.85691 18.76259 41023 ft 556 kts 101°
2026-04-26 15:09 61.83806 18.92032 41021 ft 556 kts 101°
2026-04-26 15:09 61.81876 19.07996 41016 ft 556 kts 101°
2026-04-26 15:10 61.80271 19.21148 41009 ft 556 kts 101°
2026-04-26 15:10 61.78004 19.39527 41013 ft 556 kts 101°
2026-04-26 15:11 61.75964 19.55286 41018 ft 558 kts 108°
2026-04-26 15:11 61.73168 19.70594 41006 ft 559 kts 109°
2026-04-26 15:12 61.70348 19.85867 41005 ft 559 kts 108°
2026-04-26 15:12 61.67521 20.01118 40991 ft 559 kts 109°
2026-04-26 15:13 61.64666 20.16329 40996 ft 559 kts 109°
2026-04-26 15:13 61.61809 20.31501 40982 ft 559 kts 109°
2026-04-26 15:14 61.58923 20.46652 40981 ft 558 kts 109°
2026-04-26 15:14 61.56028 20.61776 40982 ft 558 kts 109°
2026-04-26 15:15 61.53437 20.77055 40973 ft 555 kts 100°
2026-04-26 15:15 61.51986 20.92875 40974 ft 552 kts 96°
2026-04-26 15:16 61.50339 21.08613 40974 ft 555 kts 102°
2026-04-26 15:16 61.48497 21.24271 40952 ft 553 kts 99°
2026-04-26 15:17 61.47122 21.37341 40942 ft 554 kts 101°
2026-04-26 15:17 61.44978 21.55507 40926 ft 553 kts 100°
2026-04-26 15:18 61.43221 21.71167 40920 ft 553 kts 101°
2026-04-26 15:18 61.41372 21.86774 40919 ft 553 kts 101°
2026-04-26 15:19 61.39557 22.02365 40923 ft 553 kts 101°
2026-04-26 15:19 61.37690 22.17941 40926 ft 553 kts 101°
2026-04-26 15:20 61.35826 22.33505 40919 ft 553 kts 101°
2026-04-26 15:20 61.33932 22.49044 40921 ft 553 kts 102°
2026-04-26 15:21 61.32027 22.64561 40914 ft 553 kts 102°
2026-04-26 15:21 61.30103 22.80052 40904 ft 553 kts 102°
2026-04-26 15:22 61.28163 22.95522 40895 ft 553 kts 102°
2026-04-26 15:22 61.26207 23.10952 40882 ft 553 kts 102°
2026-04-26 15:23 61.24232 23.26375 40876 ft 552 kts 102°
2026-04-26 15:23 61.22240 23.41776 40869 ft 552 kts 103°
2026-04-26 15:24 61.20231 23.57156 40868 ft 552 kts 103°
2026-04-26 15:24 61.18217 23.72423 40863 ft 553 kts 103°
2026-04-26 15:25 61.16506 23.85274 40860 ft 553 kts 103°
2026-04-26 15:25 61.14109 24.03104 40849 ft 552 kts 103°
2026-04-26 15:26 61.12032 24.18390 40837 ft 552 kts 103°
2026-04-26 15:26 61.09936 24.33673 40835 ft 552 kts 103°
2026-04-26 15:27 61.07822 24.48936 40835 ft 552 kts 104°
2026-04-26 15:27 61.05691 24.64183 40828 ft 552 kts 104°
2026-04-26 15:28 61.03545 24.79399 40821 ft 552 kts 104°
2026-04-26 15:28 61.01381 24.94590 40817 ft 552 kts 104°
2026-04-26 15:29 60.99201 25.09755 40814 ft 552 kts 104°
2026-04-26 15:30 60.94795 25.39995 40801 ft 552 kts 104°
2026-04-26 15:30 60.92563 25.55102 40798 ft 552 kts 104°
2026-04-26 15:31 60.89186 25.77720 40794 ft 552 kts 105°
2026-04-26 15:32 60.86156 25.97746 40785 ft 552 kts 105°
2026-04-26 15:32 60.83471 26.15311 40779 ft 552 kts 105°
2026-04-26 15:33 60.81153 26.30321 40754 ft 552 kts 105°
2026-04-26 15:33 60.78820 26.45314 40744 ft 553 kts 106°
2026-04-26 15:34 60.76468 26.60284 40739 ft 553 kts 106°
2026-04-26 15:34 60.74101 26.75235 40735 ft 553 kts 106°
2026-04-26 15:35 60.71132 26.89696 40752 ft 555 kts 119°
2026-04-26 15:35 60.67137 27.03224 40730 ft 556 kts 120°
2026-04-26 15:36 60.63228 27.16612 40721 ft 550 kts 119°
2026-04-26 15:36 60.61270 27.23281 40493 ft 547 kts 120°
2026-04-26 15:36 60.59293 27.29920 39753 ft 550 kts 120°
2026-04-26 15:37 60.57316 27.36556 39062 ft 550 kts 120°
2026-04-26 15:37 60.55342 27.43219 38353 ft 550 kts 120°
2026-04-26 15:37 60.53362 27.49873 37587 ft 549 kts 120°
2026-04-26 15:37 60.51379 27.56489 36866 ft 548 kts 120°
2026-04-26 15:38 60.49399 27.63076 36154 ft 546 kts 120°
2026-04-26 15:38 60.47425 27.69643 35439 ft 544 kts 120°
2026-04-26 15:38 60.45454 27.76185 34714 ft 543 kts 120°
2026-04-26 15:38 60.43482 27.82698 34003 ft 542 kts 120°
2026-04-26 15:39 60.41512 27.89185 33227 ft 540 kts 120°
2026-04-26 15:39 60.39553 27.95623 32507 ft 535 kts 120°
2026-04-26 15:39 60.37609 28.01997 31790 ft 530 kts 120°
2026-04-26 15:39 60.36350 28.06110 31292 ft 511 kts 120°
2026-04-26 15:40 60.33931 28.13981 30397 ft 475 kts 120°
2026-04-26 15:40 60.32234 28.19503 29778 ft 451 kts 119°
2026-04-26 15:40 60.30622 28.24737 29097 ft 429 kts 119°
2026-04-26 15:40 60.29069 28.29769 28572 ft 421 kts 119°
2026-04-26 15:41 60.27505 28.34835 27951 ft 428 kts 119°
2026-04-26 15:41 60.25933 28.39894 27366 ft 424 kts 120°
2026-04-26 15:41 60.24372 28.44905 26745 ft 420 kts 119°
2026-04-26 15:41 60.22825 28.49869 26155 ft 417 kts 119°
2026-04-26 15:42 60.21290 28.54787 25564 ft 413 kts 119°
2026-04-26 15:42 60.19769 28.59661 24961 ft 409 kts 117°
2026-04-26 15:42 60.18635 28.64790 24636 ft 393 kts 102°
2026-04-26 15:42 60.18055 28.70020 24287 ft 380 kts 97°
2026-04-26 15:43 60.17595 28.75230 23788 ft 376 kts 96°
2026-04-26 15:43 60.17173 28.80374 23308 ft 371 kts 96°
2026-04-26 15:43 60.16276 28.90449 22264 ft 361 kts 96°
2026-04-26 15:44 60.15837 28.95369 21852 ft 357 kts 96°
2026-04-26 15:44 60.14962 29.05206 21023 ft 359 kts 96°
2026-04-26 15:44 60.14517 29.10128 20604 ft 358 kts 96°
2026-04-26 15:45 60.13634 29.19864 19777 ft 355 kts 96°
2026-04-26 15:45 60.13192 29.24725 19373 ft 353 kts 96°
2026-04-26 15:46 60.12308 29.34350 18551 ft 349 kts 96°
2026-04-26 15:46 60.11867 29.39126 18154 ft 347 kts 96°
2026-04-26 15:46 60.11428 29.43878 17737 ft 346 kts 96°
2026-04-26 15:46 60.11278 29.45484 17584 ft 345 kts 96°
2026-04-26 15:47 60.10554 29.53242 17253 ft 338 kts 96°
2026-04-26 15:47 60.09672 29.62653 16525 ft 343 kts 96°
2026-04-26 15:47 60.09229 29.67319 16126 ft 339 kts 96°
2026-04-26 15:48 60.08789 29.71942 15731 ft 337 kts 96°
2026-04-26 15:48 60.08354 29.76532 15342 ft 334 kts 96°
2026-04-26 15:48 60.07918 29.81091 14951 ft 332 kts 96°
2026-04-26 15:48 60.07482 29.85625 14569 ft 331 kts 96°
2026-04-26 15:49 60.07049 29.90110 14221 ft 323 kts 95°
2026-04-26 15:49 60.06625 29.94475 13794 ft 316 kts 95°
2026-04-26 15:49 60.06211 29.98738 13371 ft 309 kts 95°
2026-04-26 15:49 60.05796 30.02913 12888 ft 304 kts 98°
2026-04-26 15:50 60.04926 30.06780 12409 ft 308 kts 118°
2026-04-26 15:50 60.03721 30.10317 11793 ft 309 kts 120°
2026-04-26 15:50 60.02509 30.13676 11093 ft 283 kts 120°
2026-04-26 15:50 60.01401 30.16780 10397 ft 268 kts 119°
2026-04-26 15:51 60.00369 30.19756 9695 ft 260 kts 119°
2026-04-26 15:51 59.99339 30.22722 9049 ft 259 kts 119°
2026-04-26 15:51 59.98342 30.25535 8939 ft 238 kts 119°
2026-04-26 15:51 59.97391 30.28233 8947 ft 238 kts 119°
2026-04-26 15:52 59.96465 30.30864 8986 ft 227 kts 119°
2026-04-26 15:52 59.95559 30.33436 8987 ft 224 kts 118°
2026-04-26 15:52 59.94665 30.35973 8994 ft 224 kts 119°
2026-04-26 15:52 59.94057 30.37696 8716 ft 229 kts 119°
2026-04-26 15:53 59.92816 30.41205 7688 ft 233 kts 119°
2026-04-26 15:53 59.91888 30.43813 6975 ft 227 kts 119°
2026-04-26 15:53 59.90982 30.46357 6477 ft 223 kts 119°
2026-04-26 15:53 59.90093 30.48865 5946 ft 222 kts 118°
2026-04-26 15:54 59.89193 30.51399 5291 ft 225 kts 118°
2026-04-26 15:54 59.88289 30.53938 4647 ft 225 kts 117°
2026-04-26 15:54 59.87387 30.56462 4114 ft 220 kts 117°
2026-04-26 15:54 59.86510 30.58913 3653 ft 215 kts 116°
2026-04-26 15:55 59.85652 30.61316 3173 ft 211 kts 115°
2026-04-26 15:55 59.84813 30.63661 2850 ft 204 kts 115°
2026-04-26 15:55 59.84007 30.65913 2510 ft 197 kts 114°
2026-04-26 15:55 59.83243 30.68035 2470 ft 183 kts 113°
2026-04-26 15:56 59.82485 30.70190 2487 ft 191 kts 114°
2026-04-26 15:56 59.81485 30.72038 2456 ft 209 kts 149°
2026-04-26 15:56 59.80043 30.72474 2459 ft 212 kts 191°
2026-04-26 15:56 59.79149 30.71840 2469 ft 205 kts 219°
2026-04-26 15:57 59.78273 30.69856 2496 ft 182 kts 258°
2026-04-26 15:57 59.77745 30.67549 2518 ft 183 kts 257°
2026-04-26 15:57 59.77171 30.65278 2509 ft 185 kts 254°
2026-04-26 15:57 59.76769 30.63799 2510 ft 182 kts 254°
2026-04-26 15:58 59.75961 30.60856 2515 ft 181 kts 254°
2026-04-26 15:58 59.75363 30.58658 2511 ft 181 kts 255°
2026-04-26 15:58 59.74974 30.55725 2500 ft 149 kts 292°
2026-04-26 15:58 59.75112 30.54346 2519 ft 151 kts 300°
2026-04-26 15:59 59.75405 30.52448 2528 ft 140 kts 302°
2026-04-26 15:59 59.75694 30.50619 2525 ft 136 kts 302°
2026-04-26 15:59 59.75960 30.48849 2340 ft 132 kts 301°
2026-04-26 15:59 59.76215 30.47123 2162 ft 130 kts 300°
2026-04-26 16:00 59.76472 30.45431 1986 ft 127 kts 301°
2026-04-26 16:00 59.76686 30.43996 1839 ft 126 kts 300°
2026-04-26 16:00 59.76933 30.42339 1653 ft 125 kts 299°
2026-04-26 16:00 59.77179 30.40689 1483 ft 125 kts 298°
2026-04-26 16:01 59.77436 30.39023 1277 ft 129 kts 296°
2026-04-26 16:01 59.77687 30.37284 1072 ft 132 kts 294°
2026-04-26 16:01 59.77952 30.35524 867 ft 135 kts 292°
2026-04-26 16:01 59.78219 30.33749 678 ft 134 kts 290°
2026-04-26 16:02 59.78477 30.31988 506 ft 133 kts 291°
2026-04-26 16:02 59.78740 30.30227 329 ft 133 kts 289°
2026-04-26 16:02 59.78997 30.28486 161 ft 134 kts 290°
2026-04-26 16:02 59.79171 30.27307 102 ft 127 kts 290°
2026-04-26 16:03 59.79426 30.25622 95 ft 63 kts 285°
2026-04-26 16:03 59.79524 30.24965 94 ft 44 kts 287°
2026-04-26 16:03 59.79605 30.24416 92 ft 39 kts 286°
2026-04-26 16:03 59.79679 30.23925 94 ft 35 kts 287°
2026-04-26 16:04 59.79753 30.23497 94 ft 27 kts 291°
2026-04-26 16:04 59.79816 30.23238 93 ft 19 kts 304°
2026-04-26 16:04 59.79900 30.23057 91 ft 17 kts 320°
2026-04-26 16:04 59.79953 30.23017 92 ft 1 kts
2026-04-26 16:05 59.79958 30.23019 92 ft 1 kts 12°
2026-04-26 16:05 59.79965 30.23022 92 ft 0 kts 12°
2026-04-26 16:05 59.79971 30.23025 92 ft 1 kts 15°
2026-04-26 16:05 59.79974 30.23029 90 ft 1 kts 21°
2026-04-26 16:06 59.79979 30.23043 91 ft 1 kts 51°
2026-04-26 16:06 59.79980 30.23062 91 ft 2 kts 83°
2026-04-26 16:06 59.79963 30.23215 89 ft 26 kts 105°
2026-04-26 16:06 59.79908 30.23609 91 ft 31 kts 105°
2026-04-26 16:07 59.79846 30.24029 90 ft 32 kts 106°
2026-04-26 16:07 59.79784 30.24447 91 ft 31 kts 107°
2026-04-26 16:07 59.79724 30.24857 94 ft 31 kts 107°
2026-04-26 16:07 59.79664 30.25260 94 ft 30 kts 106°
2026-04-26 16:08 59.79607 30.25658 94 ft 29 kts 108°
2026-04-26 16:08 59.79545 30.26044 94 ft 29 kts 107°
2026-04-26 16:08 59.79537 30.26296 96 ft 7 kts 52°
2026-04-26 16:08 59.79552 30.26316 96 ft 2 kts 24°
2026-04-26 16:09 59.79604 30.26348 93 ft 11 kts 16°
2026-04-26 16:09 59.79680 30.26393 94 ft 12 kts 17°
2026-04-26 16:09 59.79746 30.26432 94 ft 6 kts 18°
2026-04-26 16:09 59.79779 30.26460 93 ft 5 kts 27°
2026-04-26 16:10 59.79800 30.26506 93 ft 2 kts 60°
2026-04-26 16:10 59.79802 30.26528 93 ft 2 kts 78°
2026-04-26 16:10 59.79801 30.26571 93 ft 4 kts 96°
2026-04-26 16:10 59.79798 30.26619 92 ft 2 kts 100°
2026-04-26 16:11 59.79795 30.26648 92 ft 2 kts 104°
2026-04-26 16:11 59.79791 30.26680 91 ft 1 kts 105°